Multibeam Report for MGL1109


Ship Name: Marcus G. Langseth
Chief Scientist: Barth, Ginger
US Geological Survey
Source Organization: Rolling Deck to Repository
Start Date: 2011-06-06
End Date: 2011-06-26


View ISO Metadata

Visit the full NCEI Bathymetry Viewer


Multibeam Bathymetry

Cruise Details

Project: U.S. Extended Continental Shelf (ECS) Survey
Instrument: Simrad EM122

Data Quality

Number of Files: 969
Number of Records: 451225
BATHYMETRY DATA Quantity Percentage
Number of Beams 194929200 100%
Number of Good Beams 187685359 96.28%
Number of Zero Beams 335 0.0%
Number of Flagged Beams 7243506 3.72%
AMPLITUDE DATA Quantity Percentage
Number of Beams 194929200 100%
Number of Good Beams 187685359 96.28%
Number of Zero Beams 335 0.0%
Number of Flagged Beams 7243506 3.72%
SIDESCAN DATA Quantity Percentage
Number of Pixels 462054400 100%
Number of Good Pixels 440872963 95.42%
Number of Zero Pixels 0 0%
Number of Flagged Pixels 21181437 4.58%

Navigation Totals

Total Time: 462.4322 hours
Total Track Length: 4008.2118 km
Average Speed: 8.668 km/hr (4.6803 knots)

Cruise Bounds

Northern Extent: 57.710117
Southern Extent: 53.18758
Western Extent: -153.01668
Eastern Extent: -138.19135

Limits

Minimum Sonar Depth 3.3381 Maximum Sonar Depth 9.8389
Minimum Altitude 36.2214 Maximum Altitude 10216.5781
Minimum Depth 35.7601 Maximum Depth 10223.0176
Minimum Amplitude 0 Maximum Amplitude 68.7
Minimum Sidescan 0 Maximum Sidescan 71.6

File Information

Full Resolution Bathymetry as collected (raw): 935

Files File Size Description
0001_20110607_021246_Langseth.all.mb58.gz 81.33MB Kongsberg multibeam vendor format
0002_20110607_024246_Langseth.all.mb58.gz 102.62MB Kongsberg multibeam vendor format
0003_20110607_031245_Langseth.all.mb58.gz 103.53MB Kongsberg multibeam vendor format
0004_20110607_034245_Langseth.all.mb58.gz 103.11MB Kongsberg multibeam vendor format
0005_20110607_041245_Langseth.all.mb58.gz 103.28MB Kongsberg multibeam vendor format
0006_20110607_044246_Langseth.all.mb58.gz 104.10MB Kongsberg multibeam vendor format
0007_20110607_051245_Langseth.all.mb58.gz 104.90MB Kongsberg multibeam vendor format
0008_20110607_054235_Langseth.all.mb58.gz 105.21MB Kongsberg multibeam vendor format
0009_20110607_061235_Langseth.all.mb58.gz 98.26MB Kongsberg multibeam vendor format
0010_20110607_064235_Langseth.all.mb58.gz 90.55MB Kongsberg multibeam vendor format
0011_20110607_071235_Langseth.all.mb58.gz 61.54MB Kongsberg multibeam vendor format
0012_20110607_074237_Langseth.all.mb58.gz 42.24MB Kongsberg multibeam vendor format
0013_20110607_081237_Langseth.all.mb58.gz 29.03MB Kongsberg multibeam vendor format
0014_20110607_084228_Langseth.all.mb58.gz 22.61MB Kongsberg multibeam vendor format
0015_20110607_091225_Langseth.all.mb58.gz 20.64MB Kongsberg multibeam vendor format
0016_20110607_094228_Langseth.all.mb58.gz 18.58MB Kongsberg multibeam vendor format
0017_20110607_101223_Langseth.all.mb58.gz 17.37MB Kongsberg multibeam vendor format
0018_20110607_104225_Langseth.all.mb58.gz 16.60MB Kongsberg multibeam vendor format
0019_20110607_111228_Langseth.all.mb58.gz 16.31MB Kongsberg multibeam vendor format
0020_20110607_114230_Langseth.all.mb58.gz 16.15MB Kongsberg multibeam vendor format
0021_20110607_121227_Langseth.all.mb58.gz 15.23MB Kongsberg multibeam vendor format
0022_20110607_124227_Langseth.all.mb58.gz 12.88MB Kongsberg multibeam vendor format
0023_20110607_131229_Langseth.all.mb58.gz 10.77MB Kongsberg multibeam vendor format
0024_20110607_134235_Langseth.all.mb58.gz 12.37MB Kongsberg multibeam vendor format
0025_20110607_141225_Langseth.all.mb58.gz 13.94MB Kongsberg multibeam vendor format
0026_20110607_144231_Langseth.all.mb58.gz 10.76MB Kongsberg multibeam vendor format
0027_20110607_151236_Langseth.all.mb58.gz 10.27MB Kongsberg multibeam vendor format
0028_20110607_154238_Langseth.all.mb58.gz 9.80MB Kongsberg multibeam vendor format
0029_20110607_161235_Langseth.all.mb58.gz 9.69MB Kongsberg multibeam vendor format
0030_20110607_164232_Langseth.all.mb58.gz 9.38MB Kongsberg multibeam vendor format
0031_20110607_171231_Langseth.all.mb58.gz 9.35MB Kongsberg multibeam vendor format
0032_20110607_174236_Langseth.all.mb58.gz 9.33MB Kongsberg multibeam vendor format
0033_20110607_181225_Langseth.all.mb58.gz 9.20MB Kongsberg multibeam vendor format
0034_20110607_184227_Langseth.all.mb58.gz 8.95MB Kongsberg multibeam vendor format
0035_20110607_191227_Langseth.all.mb58.gz 9.07MB Kongsberg multibeam vendor format
0036_20110607_194229_Langseth.all.mb58.gz 9.24MB Kongsberg multibeam vendor format
0037_20110607_201234_Langseth.all.mb58.gz 9.16MB Kongsberg multibeam vendor format
0038_20110607_204234_Langseth.all.mb58.gz 9.04MB Kongsberg multibeam vendor format
0039_20110607_211232_Langseth.all.mb58.gz 8.99MB Kongsberg multibeam vendor format
0040_20110607_214227_Langseth.all.mb58.gz 9.10MB Kongsberg multibeam vendor format
0041_20110607_221236_Langseth.all.mb58.gz 8.77MB Kongsberg multibeam vendor format
0042_20110607_224223_Langseth.all.mb58.gz 8.85MB Kongsberg multibeam vendor format
0043_20110607_231228_Langseth.all.mb58.gz 8.48MB Kongsberg multibeam vendor format
0044_20110607_234229_Langseth.all.mb58.gz 8.65MB Kongsberg multibeam vendor format
0045_20110608_001224_Langseth.all.mb58.gz 8.66MB Kongsberg multibeam vendor format
0046_20110608_004237_Langseth.all.mb58.gz 8.59MB Kongsberg multibeam vendor format
0047_20110608_011236_Langseth.all.mb58.gz 8.59MB Kongsberg multibeam vendor format
0048_20110608_014229_Langseth.all.mb58.gz 8.63MB Kongsberg multibeam vendor format
0049_20110608_021237_Langseth.all.mb58.gz 8.56MB Kongsberg multibeam vendor format
0050_20110608_024232_Langseth.all.mb58.gz 8.45MB Kongsberg multibeam vendor format
0051_20110608_031233_Langseth.all.mb58.gz 8.50MB Kongsberg multibeam vendor format
0052_20110608_034229_Langseth.all.mb58.gz 8.57MB Kongsberg multibeam vendor format
0053_20110608_041235_Langseth.all.mb58.gz 8.60MB Kongsberg multibeam vendor format
0054_20110608_044231_Langseth.all.mb58.gz 8.55MB Kongsberg multibeam vendor format
0055_20110608_051222_Langseth.all.mb58.gz 8.67MB Kongsberg multibeam vendor format
0056_20110608_054235_Langseth.all.mb58.gz 8.63MB Kongsberg multibeam vendor format
0057_20110608_061236_Langseth.all.mb58.gz 8.57MB Kongsberg multibeam vendor format
0058_20110608_064238_Langseth.all.mb58.gz 8.51MB Kongsberg multibeam vendor format
0059_20110608_071228_Langseth.all.mb58.gz 8.62MB Kongsberg multibeam vendor format
0060_20110608_074236_Langseth.all.mb58.gz 8.52MB Kongsberg multibeam vendor format
0061_20110608_081228_Langseth.all.mb58.gz 8.63MB Kongsberg multibeam vendor format
0062_20110608_084230_Langseth.all.mb58.gz 8.62MB Kongsberg multibeam vendor format
0063_20110608_091225_Langseth.all.mb58.gz 8.77MB Kongsberg multibeam vendor format
0064_20110608_094228_Langseth.all.mb58.gz 8.85MB Kongsberg multibeam vendor format
0065_20110608_101237_Langseth.all.mb58.gz 8.72MB Kongsberg multibeam vendor format
0066_20110608_104234_Langseth.all.mb58.gz 8.83MB Kongsberg multibeam vendor format
0067_20110608_111222_Langseth.all.mb58.gz 8.81MB Kongsberg multibeam vendor format
0068_20110608_114238_Langseth.all.mb58.gz 8.82MB Kongsberg multibeam vendor format
0069_20110608_121237_Langseth.all.mb58.gz 8.87MB Kongsberg multibeam vendor format
0070_20110608_124228_Langseth.all.mb58.gz 8.92MB Kongsberg multibeam vendor format
0071_20110608_131231_Langseth.all.mb58.gz 8.87MB Kongsberg multibeam vendor format
0072_20110608_134223_Langseth.all.mb58.gz 8.99MB Kongsberg multibeam vendor format
0073_20110608_141226_Langseth.all.mb58.gz 9.07MB Kongsberg multibeam vendor format
0074_20110608_144229_Langseth.all.mb58.gz 9.05MB Kongsberg multibeam vendor format
0075_20110608_151230_Langseth.all.mb58.gz 9.17MB Kongsberg multibeam vendor format
0076_20110608_154232_Langseth.all.mb58.gz 9.13MB Kongsberg multibeam vendor format
0077_20110608_161223_Langseth.all.mb58.gz 9.12MB Kongsberg multibeam vendor format
0078_20110608_164229_Langseth.all.mb58.gz 9.09MB Kongsberg multibeam vendor format
0079_20110608_171226_Langseth.all.mb58.gz 9.14MB Kongsberg multibeam vendor format
0080_20110608_174228_Langseth.all.mb58.gz 9.08MB Kongsberg multibeam vendor format
0081_20110608_181230_Langseth.all.mb58.gz 8.98MB Kongsberg multibeam vendor format
0082_20110608_184222_Langseth.all.mb58.gz 9.05MB Kongsberg multibeam vendor format
0083_20110608_191222_Langseth.all.mb58.gz 8.95MB Kongsberg multibeam vendor format
0084_20110608_194232_Langseth.all.mb58.gz 8.86MB Kongsberg multibeam vendor format
0085_20110608_201234_Langseth.all.mb58.gz 8.74MB Kongsberg multibeam vendor format
0086_20110608_204222_Langseth.all.mb58.gz 8.81MB Kongsberg multibeam vendor format
0087_20110608_211222_Langseth.all.mb58.gz 8.94MB Kongsberg multibeam vendor format
0088_20110608_214234_Langseth.all.mb58.gz 8.79MB Kongsberg multibeam vendor format
0089_20110608_221236_Langseth.all.mb58.gz 8.66MB Kongsberg multibeam vendor format
0090_20110608_224231_Langseth.all.mb58.gz 8.80MB Kongsberg multibeam vendor format
0091_20110608_231236_Langseth.all.mb58.gz 8.85MB Kongsberg multibeam vendor format
0092_20110608_234229_Langseth.all.mb58.gz 8.83MB Kongsberg multibeam vendor format
0093_20110609_001235_Langseth.all.mb58.gz 8.72MB Kongsberg multibeam vendor format
0094_20110609_004225_Langseth.all.mb58.gz 8.76MB Kongsberg multibeam vendor format
0095_20110609_011235_Langseth.all.mb58.gz 8.61MB Kongsberg multibeam vendor format
0096_20110609_014225_Langseth.all.mb58.gz 8.67MB Kongsberg multibeam vendor format
0097_20110609_021237_Langseth.all.mb58.gz 8.57MB Kongsberg multibeam vendor format
0098_20110609_024237_Langseth.all.mb58.gz 8.46MB Kongsberg multibeam vendor format
0099_20110609_031227_Langseth.all.mb58.gz 8.53MB Kongsberg multibeam vendor format
0100_20110609_034227_Langseth.all.mb58.gz 8.48MB Kongsberg multibeam vendor format
0101_20110609_041222_Langseth.all.mb58.gz 8.46MB Kongsberg multibeam vendor format
0102_20110609_044222_Langseth.all.mb58.gz 8.48MB Kongsberg multibeam vendor format
0103_20110609_051235_Langseth.all.mb58.gz 8.32MB Kongsberg multibeam vendor format
0104_20110609_054229_Langseth.all.mb58.gz 8.42MB Kongsberg multibeam vendor format
0105_20110609_061236_Langseth.all.mb58.gz 8.18MB Kongsberg multibeam vendor format
0106_20110609_064236_Langseth.all.mb58.gz 8.11MB Kongsberg multibeam vendor format
0107_20110609_071231_Langseth.all.mb58.gz 8.11MB Kongsberg multibeam vendor format
0108_20110609_074225_Langseth.all.mb58.gz 8.02MB Kongsberg multibeam vendor format
0109_20110609_081224_Langseth.all.mb58.gz 8.12MB Kongsberg multibeam vendor format
0110_20110609_084236_Langseth.all.mb58.gz 8.08MB Kongsberg multibeam vendor format
0111_20110609_091222_Langseth.all.mb58.gz 8.34MB Kongsberg multibeam vendor format
0112_20110609_094230_Langseth.all.mb58.gz 8.34MB Kongsberg multibeam vendor format
0113_20110609_101224_Langseth.all.mb58.gz 8.35MB Kongsberg multibeam vendor format
0114_20110609_104229_Langseth.all.mb58.gz 8.39MB Kongsberg multibeam vendor format
0115_20110609_111227_Langseth.all.mb58.gz 8.48MB Kongsberg multibeam vendor format
0116_20110609_114233_Langseth.all.mb58.gz 8.50MB Kongsberg multibeam vendor format
0117_20110609_121229_Langseth.all.mb58.gz 8.54MB Kongsberg multibeam vendor format
0118_20110609_124230_Langseth.all.mb58.gz 8.51MB Kongsberg multibeam vendor format
0119_20110609_131221_Langseth.all.mb58.gz 8.67MB Kongsberg multibeam vendor format
0120_20110609_134226_Langseth.all.mb58.gz 8.67MB Kongsberg multibeam vendor format
0121_20110609_141221_Langseth.all.mb58.gz 8.66MB Kongsberg multibeam vendor format
0122_20110609_144227_Langseth.all.mb58.gz 8.63MB Kongsberg multibeam vendor format
0123_20110609_151223_Langseth.all.mb58.gz 8.77MB Kongsberg multibeam vendor format
0124_20110609_154232_Langseth.all.mb58.gz 8.69MB Kongsberg multibeam vendor format
0125_20110609_161223_Langseth.all.mb58.gz 8.79MB Kongsberg multibeam vendor format
0126_20110609_164223_Langseth.all.mb58.gz 8.84MB Kongsberg multibeam vendor format
0127_20110609_171235_Langseth.all.mb58.gz 8.69MB Kongsberg multibeam vendor format
0128_20110609_174224_Langseth.all.mb58.gz 8.77MB Kongsberg multibeam vendor format
0129_20110609_181224_Langseth.all.mb58.gz 8.81MB Kongsberg multibeam vendor format
0130_20110609_184231_Langseth.all.mb58.gz 8.79MB Kongsberg multibeam vendor format
0131_20110609_191231_Langseth.all.mb58.gz 8.84MB Kongsberg multibeam vendor format
0132_20110609_194225_Langseth.all.mb58.gz 8.86MB Kongsberg multibeam vendor format
0133_20110609_201224_Langseth.all.mb58.gz 8.87MB Kongsberg multibeam vendor format
0134_20110609_204222_Langseth.all.mb58.gz 8.93MB Kongsberg multibeam vendor format
0135_20110609_211230_Langseth.all.mb58.gz 8.83MB Kongsberg multibeam vendor format
0136_20110609_214225_Langseth.all.mb58.gz 8.78MB Kongsberg multibeam vendor format
0137_20110609_221226_Langseth.all.mb58.gz 8.81MB Kongsberg multibeam vendor format
0138_20110609_224235_Langseth.all.mb58.gz 8.78MB Kongsberg multibeam vendor format
0139_20110609_231236_Langseth.all.mb58.gz 8.76MB Kongsberg multibeam vendor format
0140_20110609_234234_Langseth.all.mb58.gz 8.57MB Kongsberg multibeam vendor format
0141_20110610_001222_Langseth.all.mb58.gz 8.71MB Kongsberg multibeam vendor format
0142_20110610_004228_Langseth.all.mb58.gz 8.73MB Kongsberg multibeam vendor format
0143_20110610_011233_Langseth.all.mb58.gz 8.80MB Kongsberg multibeam vendor format
0144_20110610_014234_Langseth.all.mb58.gz 8.71MB Kongsberg multibeam vendor format
0145_20110610_021230_Langseth.all.mb58.gz 8.71MB Kongsberg multibeam vendor format
0146_20110610_024232_Langseth.all.mb58.gz 8.64MB Kongsberg multibeam vendor format
0147_20110610_031228_Langseth.all.mb58.gz 8.58MB Kongsberg multibeam vendor format
0148_20110610_034233_Langseth.all.mb58.gz 8.56MB Kongsberg multibeam vendor format
0149_20110610_041229_Langseth.all.mb58.gz 8.52MB Kongsberg multibeam vendor format
0150_20110610_044222_Langseth.all.mb58.gz 8.63MB Kongsberg multibeam vendor format
0151_20110610_051235_Langseth.all.mb58.gz 8.54MB Kongsberg multibeam vendor format
0152_20110610_054223_Langseth.all.mb58.gz 8.59MB Kongsberg multibeam vendor format
0153_20110610_061222_Langseth.all.mb58.gz 8.56MB Kongsberg multibeam vendor format
0154_20110610_064225_Langseth.all.mb58.gz 8.52MB Kongsberg multibeam vendor format
0155_20110610_071223_Langseth.all.mb58.gz 8.58MB Kongsberg multibeam vendor format
0156_20110610_074231_Langseth.all.mb58.gz 8.54MB Kongsberg multibeam vendor format
0157_20110610_081231_Langseth.all.mb58.gz 8.53MB Kongsberg multibeam vendor format
0158_20110610_084227_Langseth.all.mb58.gz 8.50MB Kongsberg multibeam vendor format
0159_20110610_091227_Langseth.all.mb58.gz 8.59MB Kongsberg multibeam vendor format
0160_20110610_094231_Langseth.all.mb58.gz 8.50MB Kongsberg multibeam vendor format
0161_20110610_101222_Langseth.all.mb58.gz 8.55MB Kongsberg multibeam vendor format
0162_20110610_104225_Langseth.all.mb58.gz 8.54MB Kongsberg multibeam vendor format
0163_20110610_111226_Langseth.all.mb58.gz 8.55MB Kongsberg multibeam vendor format
0164_20110610_114236_Langseth.all.mb58.gz 8.47MB Kongsberg multibeam vendor format
0165_20110610_121235_Langseth.all.mb58.gz 8.47MB Kongsberg multibeam vendor format
0166_20110610_124228_Langseth.all.mb58.gz 8.64MB Kongsberg multibeam vendor format
0167_20110610_131233_Langseth.all.mb58.gz 8.69MB Kongsberg multibeam vendor format
0168_20110610_134258_Langseth.all.mb58.gz 8.59MB Kongsberg multibeam vendor format
0169_20110610_141300_Langseth.all.mb58.gz 8.50MB Kongsberg multibeam vendor format
0170_20110610_144252_Langseth.all.mb58.gz 8.47MB Kongsberg multibeam vendor format
0171_20110610_151247_Langseth.all.mb58.gz 8.29MB Kongsberg multibeam vendor format
0172_20110610_154250_Langseth.all.mb58.gz 8.46MB Kongsberg multibeam vendor format
0173_20110610_161250_Langseth.all.mb58.gz 8.40MB Kongsberg multibeam vendor format
0174_20110610_164256_Langseth.all.mb58.gz 8.44MB Kongsberg multibeam vendor format
0175_20110610_171302_Langseth.all.mb58.gz 8.40MB Kongsberg multibeam vendor format
0176_20110610_174254_Langseth.all.mb58.gz 8.41MB Kongsberg multibeam vendor format
0177_20110610_181250_Langseth.all.mb58.gz 8.41MB Kongsberg multibeam vendor format
0178_20110610_184247_Langseth.all.mb58.gz 8.40MB Kongsberg multibeam vendor format
0179_20110610_191300_Langseth.all.mb58.gz 6.36MB Kongsberg multibeam vendor format
0180_20110610_195737_Langseth.all.mb58.gz 8.24MB Kongsberg multibeam vendor format
0181_20110610_202729_Langseth.all.mb58.gz 8.43MB Kongsberg multibeam vendor format
0182_20110610_205727_Langseth.all.mb58.gz 8.13MB Kongsberg multibeam vendor format
0183_20110610_212730_Langseth.all.mb58.gz 8.03MB Kongsberg multibeam vendor format
0184_20110610_215732_Langseth.all.mb58.gz 8.03MB Kongsberg multibeam vendor format
0185_20110610_222724_Langseth.all.mb58.gz 8.09MB Kongsberg multibeam vendor format
0186_20110610_225729_Langseth.all.mb58.gz 8.04MB Kongsberg multibeam vendor format
0187_20110610_232722_Langseth.all.mb58.gz 8.26MB Kongsberg multibeam vendor format
0188_20110610_235725_Langseth.all.mb58.gz 8.21MB Kongsberg multibeam vendor format
0189_20110611_002735_Langseth.all.mb58.gz 8.44MB Kongsberg multibeam vendor format
0190_20110611_005723_Langseth.all.mb58.gz 8.10MB Kongsberg multibeam vendor format
0191_20110611_012726_Langseth.all.mb58.gz 8.09MB Kongsberg multibeam vendor format
0192_20110611_015728_Langseth.all.mb58.gz 8.14MB Kongsberg multibeam vendor format
0193_20110611_022732_Langseth.all.mb58.gz 8.14MB Kongsberg multibeam vendor format
0194_20110611_025723_Langseth.all.mb58.gz 8.18MB Kongsberg multibeam vendor format
0195_20110611_032725_Langseth.all.mb58.gz 8.33MB Kongsberg multibeam vendor format
0196_20110611_035732_Langseth.all.mb58.gz 8.28MB Kongsberg multibeam vendor format
0197_20110611_042728_Langseth.all.mb58.gz 8.26MB Kongsberg multibeam vendor format
0198_20110611_045727_Langseth.all.mb58.gz 8.28MB Kongsberg multibeam vendor format
0199_20110611_052722_Langseth.all.mb58.gz 8.31MB Kongsberg multibeam vendor format
0200_20110611_055728_Langseth.all.mb58.gz 8.23MB Kongsberg multibeam vendor format
0201_20110611_062724_Langseth.all.mb58.gz 8.28MB Kongsberg multibeam vendor format
0202_20110611_065725_Langseth.all.mb58.gz 8.34MB Kongsberg multibeam vendor format
0203_20110611_072725_Langseth.all.mb58.gz 8.46MB Kongsberg multibeam vendor format
0204_20110611_075734_Langseth.all.mb58.gz 8.42MB Kongsberg multibeam vendor format
0205_20110611_082724_Langseth.all.mb58.gz 8.46MB Kongsberg multibeam vendor format
0206_20110611_085732_Langseth.all.mb58.gz 8.54MB Kongsberg multibeam vendor format
0207_20110611_092734_Langseth.all.mb58.gz 8.59MB Kongsberg multibeam vendor format
0208_20110611_095731_Langseth.all.mb58.gz 8.55MB Kongsberg multibeam vendor format
0209_20110611_102734_Langseth.all.mb58.gz 8.47MB Kongsberg multibeam vendor format
0210_20110611_105724_Langseth.all.mb58.gz 8.75MB Kongsberg multibeam vendor format
0211_20110611_112725_Langseth.all.mb58.gz 8.74MB Kongsberg multibeam vendor format
0212_20110611_115726_Langseth.all.mb58.gz 8.73MB Kongsberg multibeam vendor format
0213_20110611_122719_Langseth.all.mb58.gz 8.78MB Kongsberg multibeam vendor format
0214_20110611_125732_Langseth.all.mb58.gz 8.76MB Kongsberg multibeam vendor format
0215_20110611_132733_Langseth.all.mb58.gz 8.71MB Kongsberg multibeam vendor format
0216_20110611_135719_Langseth.all.mb58.gz 8.79MB Kongsberg multibeam vendor format
0217_20110611_142729_Langseth.all.mb58.gz 8.77MB Kongsberg multibeam vendor format
0218_20110611_145725_Langseth.all.mb58.gz 8.84MB Kongsberg multibeam vendor format
0219_20110611_152726_Langseth.all.mb58.gz 8.86MB Kongsberg multibeam vendor format
0220_20110611_155730_Langseth.all.mb58.gz 8.84MB Kongsberg multibeam vendor format
0221_20110611_162721_Langseth.all.mb58.gz 8.82MB Kongsberg multibeam vendor format
0222_20110611_165724_Langseth.all.mb58.gz 8.82MB Kongsberg multibeam vendor format
0223_20110611_172731_Langseth.all.mb58.gz 8.84MB Kongsberg multibeam vendor format
0224_20110611_175725_Langseth.all.mb58.gz 8.83MB Kongsberg multibeam vendor format
0225_20110611_182731_Langseth.all.mb58.gz 8.82MB Kongsberg multibeam vendor format
0226_20110611_185729_Langseth.all.mb58.gz 8.77MB Kongsberg multibeam vendor format
0227_20110611_192729_Langseth.all.mb58.gz 8.80MB Kongsberg multibeam vendor format
0228_20110611_195727_Langseth.all.mb58.gz 8.74MB Kongsberg multibeam vendor format
0229_20110611_202725_Langseth.all.mb58.gz 8.71MB Kongsberg multibeam vendor format
0230_20110611_205725_Langseth.all.mb58.gz 8.75MB Kongsberg multibeam vendor format
0231_20110611_212725_Langseth.all.mb58.gz 8.73MB Kongsberg multibeam vendor format
0232_20110611_215726_Langseth.all.mb58.gz 8.64MB Kongsberg multibeam vendor format
0233_20110611_222723_Langseth.all.mb58.gz 8.65MB Kongsberg multibeam vendor format
0234_20110611_225718_Langseth.all.mb58.gz 8.64MB Kongsberg multibeam vendor format
0235_20110611_232723_Langseth.all.mb58.gz 8.59MB Kongsberg multibeam vendor format
0236_20110611_235729_Langseth.all.mb58.gz 8.57MB Kongsberg multibeam vendor format
0237_20110612_002719_Langseth.all.mb58.gz 8.59MB Kongsberg multibeam vendor format
0238_20110612_005718_Langseth.all.mb58.gz 8.55MB Kongsberg multibeam vendor format
0239_20110612_012721_Langseth.all.mb58.gz 8.55MB Kongsberg multibeam vendor format
0240_20110612_015717_Langseth.all.mb58.gz 8.69MB Kongsberg multibeam vendor format
0241_20110612_022731_Langseth.all.mb58.gz 8.63MB Kongsberg multibeam vendor format
0242_20110612_025722_Langseth.all.mb58.gz 8.69MB Kongsberg multibeam vendor format
0243_20110612_032719_Langseth.all.mb58.gz 8.74MB Kongsberg multibeam vendor format
0244_20110612_035725_Langseth.all.mb58.gz 8.70MB Kongsberg multibeam vendor format
0245_20110612_042728_Langseth.all.mb58.gz 8.72MB Kongsberg multibeam vendor format
0246_20110612_045725_Langseth.all.mb58.gz 8.64MB Kongsberg multibeam vendor format
0247_20110612_052720_Langseth.all.mb58.gz 8.52MB Kongsberg multibeam vendor format
0248_20110612_055728_Langseth.all.mb58.gz 8.53MB Kongsberg multibeam vendor format
0249_20110612_062721_Langseth.all.mb58.gz 8.68MB Kongsberg multibeam vendor format
0250_20110612_065723_Langseth.all.mb58.gz 8.49MB Kongsberg multibeam vendor format
0251_20110612_072728_Langseth.all.mb58.gz 8.56MB Kongsberg multibeam vendor format
0252_20110612_075718_Langseth.all.mb58.gz 8.59MB Kongsberg multibeam vendor format
0253_20110612_082727_Langseth.all.mb58.gz 8.45MB Kongsberg multibeam vendor format
0254_20110612_085717_Langseth.all.mb58.gz 8.62MB Kongsberg multibeam vendor format
0255_20110612_092732_Langseth.all.mb58.gz 8.50MB Kongsberg multibeam vendor format
0256_20110612_095731_Langseth.all.mb58.gz 8.53MB Kongsberg multibeam vendor format
0257_20110612_102732_Langseth.all.mb58.gz 8.45MB Kongsberg multibeam vendor format
0258_20110612_105727_Langseth.all.mb58.gz 8.44MB Kongsberg multibeam vendor format
0259_20110612_112731_Langseth.all.mb58.gz 8.39MB Kongsberg multibeam vendor format
0260_20110612_115727_Langseth.all.mb58.gz 8.41MB Kongsberg multibeam vendor format
0261_20110612_122728_Langseth.all.mb58.gz 8.35MB Kongsberg multibeam vendor format
0262_20110612_125724_Langseth.all.mb58.gz 8.40MB Kongsberg multibeam vendor format
0263_20110612_132732_Langseth.all.mb58.gz 8.38MB Kongsberg multibeam vendor format
0264_20110612_135716_Langseth.all.mb58.gz 8.43MB Kongsberg multibeam vendor format
0265_20110612_142730_Langseth.all.mb58.gz 8.29MB Kongsberg multibeam vendor format
0266_20110612_145730_Langseth.all.mb58.gz 8.34MB Kongsberg multibeam vendor format
0267_20110612_152728_Langseth.all.mb58.gz 8.33MB Kongsberg multibeam vendor format
0268_20110612_155717_Langseth.all.mb58.gz 8.37MB Kongsberg multibeam vendor format
0269_20110612_162724_Langseth.all.mb58.gz 8.37MB Kongsberg multibeam vendor format
0270_20110612_165730_Langseth.all.mb58.gz 8.38MB Kongsberg multibeam vendor format
0271_20110612_172722_Langseth.all.mb58.gz 8.36MB Kongsberg multibeam vendor format
0272_20110612_175718_Langseth.all.mb58.gz 8.49MB Kongsberg multibeam vendor format
0273_20110612_182732_Langseth.all.mb58.gz 8.42MB Kongsberg multibeam vendor format
0274_20110612_185722_Langseth.all.mb58.gz 8.45MB Kongsberg multibeam vendor format
0275_20110612_192720_Langseth.all.mb58.gz 8.53MB Kongsberg multibeam vendor format
0276_20110612_195731_Langseth.all.mb58.gz 8.49MB Kongsberg multibeam vendor format
0277_20110612_202729_Langseth.all.mb58.gz 8.52MB Kongsberg multibeam vendor format
0278_20110612_205725_Langseth.all.mb58.gz 8.49MB Kongsberg multibeam vendor format
0279_20110612_212717_Langseth.all.mb58.gz 8.54MB Kongsberg multibeam vendor format
0280_20110612_215716_Langseth.all.mb58.gz 8.71MB Kongsberg multibeam vendor format
0281_20110612_222727_Langseth.all.mb58.gz 8.65MB Kongsberg multibeam vendor format
0282_20110612_225727_Langseth.all.mb58.gz 8.48MB Kongsberg multibeam vendor format
0283_20110612_232720_Langseth.all.mb58.gz 8.65MB Kongsberg multibeam vendor format
0284_20110612_235732_Langseth.all.mb58.gz 8.44MB Kongsberg multibeam vendor format
0285_20110613_002730_Langseth.all.mb58.gz 8.57MB Kongsberg multibeam vendor format
0286_20110613_005721_Langseth.all.mb58.gz 8.71MB Kongsberg multibeam vendor format
0287_20110613_012730_Langseth.all.mb58.gz 8.61MB Kongsberg multibeam vendor format
0288_20110613_015731_Langseth.all.mb58.gz 8.27MB Kongsberg multibeam vendor format
0289_20110613_022718_Langseth.all.mb58.gz 8.55MB Kongsberg multibeam vendor format
0290_20110613_025731_Langseth.all.mb58.gz 8.41MB Kongsberg multibeam vendor format
0291_20110613_032718_Langseth.all.mb58.gz 8.47MB Kongsberg multibeam vendor format
0292_20110613_035722_Langseth.all.mb58.gz 8.41MB Kongsberg multibeam vendor format
0293_20110613_042719_Langseth.all.mb58.gz 8.43MB Kongsberg multibeam vendor format
0294_20110613_045731_Langseth.all.mb58.gz 8.38MB Kongsberg multibeam vendor format
0295_20110613_052728_Langseth.all.mb58.gz 8.45MB Kongsberg multibeam vendor format
0296_20110613_055725_Langseth.all.mb58.gz 8.45MB Kongsberg multibeam vendor format
0297_20110613_062720_Langseth.all.mb58.gz 8.45MB Kongsberg multibeam vendor format
0298_20110613_065731_Langseth.all.mb58.gz 8.39MB Kongsberg multibeam vendor format
0299_20110613_072722_Langseth.all.mb58.gz 8.55MB Kongsberg multibeam vendor format
0300_20110613_075724_Langseth.all.mb58.gz 8.42MB Kongsberg multibeam vendor format
0301_20110613_082722_Langseth.all.mb58.gz 8.46MB Kongsberg multibeam vendor format
0302_20110613_085729_Langseth.all.mb58.gz 8.36MB Kongsberg multibeam vendor format
0303_20110613_092719_Langseth.all.mb58.gz 8.48MB Kongsberg multibeam vendor format
0304_20110613_095722_Langseth.all.mb58.gz 8.54MB Kongsberg multibeam vendor format
0305_20110613_102722_Langseth.all.mb58.gz 8.64MB Kongsberg multibeam vendor format
0306_20110613_105730_Langseth.all.mb58.gz 8.59MB Kongsberg multibeam vendor format
0307_20110613_112725_Langseth.all.mb58.gz 8.59MB Kongsberg multibeam vendor format
0308_20110613_115726_Langseth.all.mb58.gz 8.51MB Kongsberg multibeam vendor format
0309_20110613_122721_Langseth.all.mb58.gz 8.60MB Kongsberg multibeam vendor format
0310_20110613_125727_Langseth.all.mb58.gz 8.61MB Kongsberg multibeam vendor format
0311_20110613_132723_Langseth.all.mb58.gz 8.57MB Kongsberg multibeam vendor format
0312_20110613_135716_Langseth.all.mb58.gz 8.64MB Kongsberg multibeam vendor format
0313_20110613_142728_Langseth.all.mb58.gz 8.47MB Kongsberg multibeam vendor format
0314_20110613_145719_Langseth.all.mb58.gz 8.58MB Kongsberg multibeam vendor format
0315_20110613_152726_Langseth.all.mb58.gz 8.56MB Kongsberg multibeam vendor format
0316_20110613_155723_Langseth.all.mb58.gz 8.66MB Kongsberg multibeam vendor format
0317_20110613_162730_Langseth.all.mb58.gz 8.68MB Kongsberg multibeam vendor format
0318_20110613_165725_Langseth.all.mb58.gz 8.68MB Kongsberg multibeam vendor format
0319_20110613_172720_Langseth.all.mb58.gz 8.78MB Kongsberg multibeam vendor format
0320_20110613_175726_Langseth.all.mb58.gz 8.72MB Kongsberg multibeam vendor format
0321_20110613_182719_Langseth.all.mb58.gz 8.74MB Kongsberg multibeam vendor format
0322_20110613_185729_Langseth.all.mb58.gz 8.65MB Kongsberg multibeam vendor format
0323_20110613_192727_Langseth.all.mb58.gz 8.63MB Kongsberg multibeam vendor format
0324_20110613_195728_Langseth.all.mb58.gz 8.68MB Kongsberg multibeam vendor format
0325_20110613_202728_Langseth.all.mb58.gz 8.69MB Kongsberg multibeam vendor format
0326_20110613_205719_Langseth.all.mb58.gz 8.73MB Kongsberg multibeam vendor format
0327_20110613_212728_Langseth.all.mb58.gz 8.69MB Kongsberg multibeam vendor format
0328_20110613_215719_Langseth.all.mb58.gz 8.84MB Kongsberg multibeam vendor format
0329_20110613_222720_Langseth.all.mb58.gz 8.86MB Kongsberg multibeam vendor format
0330_20110613_225722_Langseth.all.mb58.gz 8.81MB Kongsberg multibeam vendor format
0331_20110613_232718_Langseth.all.mb58.gz 8.92MB Kongsberg multibeam vendor format
0332_20110613_235724_Langseth.all.mb58.gz 8.90MB Kongsberg multibeam vendor format
0333_20110614_002726_Langseth.all.mb58.gz 8.83MB Kongsberg multibeam vendor format
0334_20110614_005718_Langseth.all.mb58.gz 8.98MB Kongsberg multibeam vendor format
0335_20110614_012728_Langseth.all.mb58.gz 8.90MB Kongsberg multibeam vendor format
0336_20110614_015718_Langseth.all.mb58.gz 8.97MB Kongsberg multibeam vendor format
0337_20110614_022729_Langseth.all.mb58.gz 8.95MB Kongsberg multibeam vendor format
0338_20110614_025729_Langseth.all.mb58.gz 8.91MB Kongsberg multibeam vendor format
0339_20110614_032719_Langseth.all.mb58.gz 9.05MB Kongsberg multibeam vendor format
0340_20110614_035728_Langseth.all.mb58.gz 8.95MB Kongsberg multibeam vendor format
0341_20110614_042715_Langseth.all.mb58.gz 9.07MB Kongsberg multibeam vendor format
0342_20110614_045719_Langseth.all.mb58.gz 9.07MB Kongsberg multibeam vendor format
0343_20110614_052724_Langseth.all.mb58.gz 9.09MB Kongsberg multibeam vendor format
0344_20110614_055727_Langseth.all.mb58.gz 9.03MB Kongsberg multibeam vendor format
0345_20110614_062718_Langseth.all.mb58.gz 9.08MB Kongsberg multibeam vendor format
0346_20110614_065724_Langseth.all.mb58.gz 9.08MB Kongsberg multibeam vendor format
0347_20110614_072727_Langseth.all.mb58.gz 9.13MB Kongsberg multibeam vendor format
0348_20110614_075721_Langseth.all.mb58.gz 9.10MB Kongsberg multibeam vendor format
0349_20110614_082718_Langseth.all.mb58.gz 9.12MB Kongsberg multibeam vendor format
0350_20110614_085719_Langseth.all.mb58.gz 9.12MB Kongsberg multibeam vendor format
0351_20110614_092725_Langseth.all.mb58.gz 9.15MB Kongsberg multibeam vendor format
0352_20110614_095729_Langseth.all.mb58.gz 9.10MB Kongsberg multibeam vendor format
0353_20110614_102721_Langseth.all.mb58.gz 9.13MB Kongsberg multibeam vendor format
0354_20110614_105716_Langseth.all.mb58.gz 9.18MB Kongsberg multibeam vendor format
0355_20110614_112725_Langseth.all.mb58.gz 9.22MB Kongsberg multibeam vendor format
0356_20110614_115723_Langseth.all.mb58.gz 9.18MB Kongsberg multibeam vendor format
0357_20110614_122716_Langseth.all.mb58.gz 9.28MB Kongsberg multibeam vendor format
0358_20110614_125726_Langseth.all.mb58.gz 9.23MB Kongsberg multibeam vendor format
0359_20110614_132717_Langseth.all.mb58.gz 9.26MB Kongsberg multibeam vendor format
0360_20110614_135720_Langseth.all.mb58.gz 9.29MB Kongsberg multibeam vendor format
0361_20110614_142721_Langseth.all.mb58.gz 9.38MB Kongsberg multibeam vendor format
0362_20110614_145729_Langseth.all.mb58.gz 9.36MB Kongsberg multibeam vendor format
0363_20110614_152728_Langseth.all.mb58.gz 9.42MB Kongsberg multibeam vendor format
0364_20110614_155725_Langseth.all.mb58.gz 9.41MB Kongsberg multibeam vendor format
0365_20110614_162726_Langseth.all.mb58.gz 9.41MB Kongsberg multibeam vendor format
0366_20110614_165728_Langseth.all.mb58.gz 9.33MB Kongsberg multibeam vendor format
0367_20110614_172720_Langseth.all.mb58.gz 9.60MB Kongsberg multibeam vendor format
0368_20110614_175728_Langseth.all.mb58.gz 9.62MB Kongsberg multibeam vendor format
0369_20110614_182718_Langseth.all.mb58.gz 9.64MB Kongsberg multibeam vendor format
0370_20110614_185718_Langseth.all.mb58.gz 9.65MB Kongsberg multibeam vendor format
0371_20110614_192716_Langseth.all.mb58.gz 9.61MB Kongsberg multibeam vendor format
0372_20110614_195716_Langseth.all.mb58.gz 9.64MB Kongsberg multibeam vendor format
0373_20110614_202729_Langseth.all.mb58.gz 9.53MB Kongsberg multibeam vendor format
0374_20110614_205720_Langseth.all.mb58.gz 9.57MB Kongsberg multibeam vendor format
0375_20110614_212724_Langseth.all.mb58.gz 9.46MB Kongsberg multibeam vendor format
0376_20110614_215720_Langseth.all.mb58.gz 9.55MB Kongsberg multibeam vendor format
0377_20110614_222726_Langseth.all.mb58.gz 9.47MB Kongsberg multibeam vendor format
0378_20110614_225722_Langseth.all.mb58.gz 9.46MB Kongsberg multibeam vendor format
0379_20110614_232715_Langseth.all.mb58.gz 9.51MB Kongsberg multibeam vendor format
0380_20110614_235723_Langseth.all.mb58.gz 9.41MB Kongsberg multibeam vendor format
0381_20110615_002715_Langseth.all.mb58.gz 9.43MB Kongsberg multibeam vendor format
0382_20110615_005715_Langseth.all.mb58.gz 9.42MB Kongsberg multibeam vendor format
0383_20110615_012728_Langseth.all.mb58.gz 9.29MB Kongsberg multibeam vendor format
0384_20110615_015721_Langseth.all.mb58.gz 9.35MB Kongsberg multibeam vendor format
0385_20110615_022719_Langseth.all.mb58.gz 9.39MB Kongsberg multibeam vendor format
0386_20110615_025729_Langseth.all.mb58.gz 9.25MB Kongsberg multibeam vendor format
0387_20110615_032724_Langseth.all.mb58.gz 9.32MB Kongsberg multibeam vendor format
0388_20110615_035728_Langseth.all.mb58.gz 9.32MB Kongsberg multibeam vendor format
0389_20110615_042725_Langseth.all.mb58.gz 9.29MB Kongsberg multibeam vendor format
0390_20110615_045718_Langseth.all.mb58.gz 9.27MB Kongsberg multibeam vendor format
0391_20110615_052720_Langseth.all.mb58.gz 9.24MB Kongsberg multibeam vendor format
0392_20110615_055721_Langseth.all.mb58.gz 9.24MB Kongsberg multibeam vendor format
0393_20110615_062720_Langseth.all.mb58.gz 9.31MB Kongsberg multibeam vendor format
0394_20110615_065716_Langseth.all.mb58.gz 9.33MB Kongsberg multibeam vendor format
0395_20110615_072718_Langseth.all.mb58.gz 9.38MB Kongsberg multibeam vendor format
0396_20110615_075721_Langseth.all.mb58.gz 9.28MB Kongsberg multibeam vendor format
0397_20110615_082726_Langseth.all.mb58.gz 9.30MB Kongsberg multibeam vendor format
0398_20110615_085716_Langseth.all.mb58.gz 9.37MB Kongsberg multibeam vendor format
0399_20110615_092721_Langseth.all.mb58.gz 9.34MB Kongsberg multibeam vendor format
0400_20110615_095718_Langseth.all.mb58.gz 9.39MB Kongsberg multibeam vendor format
0401_20110615_102722_Langseth.all.mb58.gz 9.29MB Kongsberg multibeam vendor format
0402_20110615_105722_Langseth.all.mb58.gz 9.33MB Kongsberg multibeam vendor format
0403_20110615_112721_Langseth.all.mb58.gz 9.37MB Kongsberg multibeam vendor format
0404_20110615_115718_Langseth.all.mb58.gz 9.39MB Kongsberg multibeam vendor format
0405_20110615_122717_Langseth.all.mb58.gz 9.40MB Kongsberg multibeam vendor format
0406_20110615_125721_Langseth.all.mb58.gz 9.40MB Kongsberg multibeam vendor format
0407_20110615_132726_Langseth.all.mb58.gz 9.40MB Kongsberg multibeam vendor format
0408_20110615_135714_Langseth.all.mb58.gz 9.49MB Kongsberg multibeam vendor format
0409_20110615_142727_Langseth.all.mb58.gz 9.41MB Kongsberg multibeam vendor format
0410_20110615_145724_Langseth.all.mb58.gz 9.32MB Kongsberg multibeam vendor format
0411_20110615_152719_Langseth.all.mb58.gz 9.43MB Kongsberg multibeam vendor format
0412_20110615_155726_Langseth.all.mb58.gz 9.29MB Kongsberg multibeam vendor format
0413_20110615_162715_Langseth.all.mb58.gz 9.28MB Kongsberg multibeam vendor format
0414_20110615_165718_Langseth.all.mb58.gz 9.21MB Kongsberg multibeam vendor format
0415_20110615_172718_Langseth.all.mb58.gz 9.21MB Kongsberg multibeam vendor format
0416_20110615_175719_Langseth.all.mb58.gz 9.17MB Kongsberg multibeam vendor format
0417_20110615_182722_Langseth.all.mb58.gz 9.14MB Kongsberg multibeam vendor format
0418_20110615_185720_Langseth.all.mb58.gz 9.23MB Kongsberg multibeam vendor format
0419_20110615_192727_Langseth.all.mb58.gz 9.20MB Kongsberg multibeam vendor format
0420_20110615_195720_Langseth.all.mb58.gz 9.30MB Kongsberg multibeam vendor format
0421_20110615_202725_Langseth.all.mb58.gz 9.13MB Kongsberg multibeam vendor format
0422_20110615_205722_Langseth.all.mb58.gz 9.11MB Kongsberg multibeam vendor format
0423_20110615_212723_Langseth.all.mb58.gz 9.09MB Kongsberg multibeam vendor format
0424_20110615_215719_Langseth.all.mb58.gz 9.06MB Kongsberg multibeam vendor format
0425_20110615_222719_Langseth.all.mb58.gz 9.04MB Kongsberg multibeam vendor format
0426_20110615_225719_Langseth.all.mb58.gz 9.05MB Kongsberg multibeam vendor format
0427_20110615_232719_Langseth.all.mb58.gz 8.89MB Kongsberg multibeam vendor format
0428_20110615_235717_Langseth.all.mb58.gz 8.86MB Kongsberg multibeam vendor format
0429_20110616_002718_Langseth.all.mb58.gz 8.84MB Kongsberg multibeam vendor format
0430_20110616_005729_Langseth.all.mb58.gz 8.66MB Kongsberg multibeam vendor format
0431_20110616_012715_Langseth.all.mb58.gz 8.75MB Kongsberg multibeam vendor format
0432_20110616_015726_Langseth.all.mb58.gz 8.74MB Kongsberg multibeam vendor format
0433_20110616_022716_Langseth.all.mb58.gz 8.81MB Kongsberg multibeam vendor format
0434_20110616_025722_Langseth.all.mb58.gz 8.80MB Kongsberg multibeam vendor format
0435_20110616_032727_Langseth.all.mb58.gz 8.82MB Kongsberg multibeam vendor format
0436_20110616_035723_Langseth.all.mb58.gz 8.81MB Kongsberg multibeam vendor format
0437_20110616_042727_Langseth.all.mb58.gz 8.84MB Kongsberg multibeam vendor format
0438_20110616_045726_Langseth.all.mb58.gz 8.83MB Kongsberg multibeam vendor format
0439_20110616_052714_Langseth.all.mb58.gz 8.92MB Kongsberg multibeam vendor format
0440_20110616_055724_Langseth.all.mb58.gz 8.89MB Kongsberg multibeam vendor format
0441_20110616_062716_Langseth.all.mb58.gz 8.94MB Kongsberg multibeam vendor format
0442_20110616_065718_Langseth.all.mb58.gz 8.95MB Kongsberg multibeam vendor format
0443_20110616_072728_Langseth.all.mb58.gz 8.90MB Kongsberg multibeam vendor format
0444_20110616_075721_Langseth.all.mb58.gz 8.98MB Kongsberg multibeam vendor format
0445_20110616_082716_Langseth.all.mb58.gz 9.12MB Kongsberg multibeam vendor format
0446_20110616_085718_Langseth.all.mb58.gz 9.17MB Kongsberg multibeam vendor format
0447_20110616_092724_Langseth.all.mb58.gz 9.13MB Kongsberg multibeam vendor format
0448_20110616_095718_Langseth.all.mb58.gz 9.32MB Kongsberg multibeam vendor format
0449_20110616_102720_Langseth.all.mb58.gz 9.41MB Kongsberg multibeam vendor format
0450_20110616_105722_Langseth.all.mb58.gz 9.45MB Kongsberg multibeam vendor format
0451_20110616_112724_Langseth.all.mb58.gz 9.52MB Kongsberg multibeam vendor format
0452_20110616_115714_Langseth.all.mb58.gz 9.68MB Kongsberg multibeam vendor format
0453_20110616_122721_Langseth.all.mb58.gz 9.78MB Kongsberg multibeam vendor format
0454_20110616_125725_Langseth.all.mb58.gz 9.75MB Kongsberg multibeam vendor format
0455_20110616_132714_Langseth.all.mb58.gz 9.76MB Kongsberg multibeam vendor format
0456_20110616_135720_Langseth.all.mb58.gz 9.79MB Kongsberg multibeam vendor format
0457_20110616_142720_Langseth.all.mb58.gz 9.94MB Kongsberg multibeam vendor format
0458_20110616_145726_Langseth.all.mb58.gz 10.00MB Kongsberg multibeam vendor format
0459_20110616_152728_Langseth.all.mb58.gz 9.98MB Kongsberg multibeam vendor format
0460_20110616_155721_Langseth.all.mb58.gz 10.09MB Kongsberg multibeam vendor format
0461_20110616_162721_Langseth.all.mb58.gz 9.86MB Kongsberg multibeam vendor format
0462_20110616_165721_Langseth.all.mb58.gz 9.85MB Kongsberg multibeam vendor format
0463_20110616_172719_Langseth.all.mb58.gz 9.99MB Kongsberg multibeam vendor format
0464_20110616_175725_Langseth.all.mb58.gz 9.91MB Kongsberg multibeam vendor format
0465_20110616_182721_Langseth.all.mb58.gz 9.94MB Kongsberg multibeam vendor format
0466_20110616_185722_Langseth.all.mb58.gz 9.84MB Kongsberg multibeam vendor format
0467_20110616_192719_Langseth.all.mb58.gz 9.95MB Kongsberg multibeam vendor format
0468_20110616_195716_Langseth.all.mb58.gz 3.03MB Kongsberg multibeam vendor format
0469_20110616_200754_Langseth.all.mb58.gz 9.79MB Kongsberg multibeam vendor format
0470_20110616_203743_Langseth.all.mb58.gz 9.87MB Kongsberg multibeam vendor format
0471_20110616_210743_Langseth.all.mb58.gz 9.96MB Kongsberg multibeam vendor format
0472_20110616_213749_Langseth.all.mb58.gz 9.91MB Kongsberg multibeam vendor format
0473_20110616_220744_Langseth.all.mb58.gz 9.84MB Kongsberg multibeam vendor format
0474_20110616_223738_Langseth.all.mb58.gz 9.89MB Kongsberg multibeam vendor format
0475_20110616_230749_Langseth.all.mb58.gz 9.80MB Kongsberg multibeam vendor format
0476_20110616_233739_Langseth.all.mb58.gz 9.82MB Kongsberg multibeam vendor format
0477_20110617_000736_Langseth.all.mb58.gz 9.86MB Kongsberg multibeam vendor format
0478_20110617_003737_Langseth.all.mb58.gz 9.89MB Kongsberg multibeam vendor format
0479_20110617_010749_Langseth.all.mb58.gz 9.83MB Kongsberg multibeam vendor format
0480_20110617_013742_Langseth.all.mb58.gz 9.79MB Kongsberg multibeam vendor format
0481_20110617_020736_Langseth.all.mb58.gz 9.87MB Kongsberg multibeam vendor format
0482_20110617_023749_Langseth.all.mb58.gz 9.79MB Kongsberg multibeam vendor format
0483_20110617_030745_Langseth.all.mb58.gz 9.81MB Kongsberg multibeam vendor format
0484_20110617_033744_Langseth.all.mb58.gz 9.84MB Kongsberg multibeam vendor format
0485_20110617_040742_Langseth.all.mb58.gz 9.70MB Kongsberg multibeam vendor format
0486_20110617_043739_Langseth.all.mb58.gz 9.76MB Kongsberg multibeam vendor format
0487_20110617_050738_Langseth.all.mb58.gz 9.75MB Kongsberg multibeam vendor format
0488_20110617_053746_Langseth.all.mb58.gz 9.64MB Kongsberg multibeam vendor format
0489_20110617_060748_Langseth.all.mb58.gz 9.66MB Kongsberg multibeam vendor format
0490_20110617_063747_Langseth.all.mb58.gz 9.69MB Kongsberg multibeam vendor format
0491_20110617_070744_Langseth.all.mb58.gz 9.68MB Kongsberg multibeam vendor format
0492_20110617_073742_Langseth.all.mb58.gz 9.74MB Kongsberg multibeam vendor format
0493_20110617_080743_Langseth.all.mb58.gz 9.67MB Kongsberg multibeam vendor format
0494_20110617_083736_Langseth.all.mb58.gz 9.74MB Kongsberg multibeam vendor format
0495_20110617_090744_Langseth.all.mb58.gz 9.62MB Kongsberg multibeam vendor format
0496_20110617_093742_Langseth.all.mb58.gz 9.68MB Kongsberg multibeam vendor format
0497_20110617_100737_Langseth.all.mb58.gz 9.62MB Kongsberg multibeam vendor format
0498_20110617_103748_Langseth.all.mb58.gz 9.52MB Kongsberg multibeam vendor format
0499_20110617_110739_Langseth.all.mb58.gz 9.62MB Kongsberg multibeam vendor format
0500_20110617_113743_Langseth.all.mb58.gz 9.53MB Kongsberg multibeam vendor format
0501_20110617_120742_Langseth.all.mb58.gz 9.58MB Kongsberg multibeam vendor format
0502_20110617_123737_Langseth.all.mb58.gz 9.66MB Kongsberg multibeam vendor format
0503_20110617_130746_Langseth.all.mb58.gz 9.54MB Kongsberg multibeam vendor format
0504_20110617_133744_Langseth.all.mb58.gz 9.61MB Kongsberg multibeam vendor format
0505_20110617_140755_Langseth.all.mb58.gz 9.54MB Kongsberg multibeam vendor format
0506_20110617_143751_Langseth.all.mb58.gz 9.56MB Kongsberg multibeam vendor format
0507_20110617_150750_Langseth.all.mb58.gz 9.52MB Kongsberg multibeam vendor format
0508_20110617_153752_Langseth.all.mb58.gz 9.51MB Kongsberg multibeam vendor format
0509_20110617_160757_Langseth.all.mb58.gz 9.54MB Kongsberg multibeam vendor format
0510_20110617_163752_Langseth.all.mb58.gz 9.60MB Kongsberg multibeam vendor format
0511_20110617_170747_Langseth.all.mb58.gz 9.55MB Kongsberg multibeam vendor format
0512_20110617_173746_Langseth.all.mb58.gz 9.56MB Kongsberg multibeam vendor format
0513_20110617_180745_Langseth.all.mb58.gz 9.57MB Kongsberg multibeam vendor format
0514_20110617_183748_Langseth.all.mb58.gz 9.57MB Kongsberg multibeam vendor format
0515_20110617_190751_Langseth.all.mb58.gz 9.45MB Kongsberg multibeam vendor format
0516_20110617_193748_Langseth.all.mb58.gz 9.48MB Kongsberg multibeam vendor format
0517_20110617_200748_Langseth.all.mb58.gz 9.49MB Kongsberg multibeam vendor format
0518_20110617_203755_Langseth.all.mb58.gz 9.29MB Kongsberg multibeam vendor format
0519_20110617_210749_Langseth.all.mb58.gz 9.24MB Kongsberg multibeam vendor format
0520_20110617_213750_Langseth.all.mb58.gz 9.24MB Kongsberg multibeam vendor format
0521_20110617_220756_Langseth.all.mb58.gz 9.16MB Kongsberg multibeam vendor format
0522_20110617_223744_Langseth.all.mb58.gz 9.33MB Kongsberg multibeam vendor format
0523_20110617_230753_Langseth.all.mb58.gz 9.09MB Kongsberg multibeam vendor format
0524_20110617_233743_Langseth.all.mb58.gz 9.18MB Kongsberg multibeam vendor format
0525_20110618_000748_Langseth.all.mb58.gz 9.12MB Kongsberg multibeam vendor format
0526_20110618_003750_Langseth.all.mb58.gz 9.07MB Kongsberg multibeam vendor format
0527_20110618_010752_Langseth.all.mb58.gz 8.99MB Kongsberg multibeam vendor format
0528_20110618_013745_Langseth.all.mb58.gz 9.10MB Kongsberg multibeam vendor format
0529_20110618_020751_Langseth.all.mb58.gz 9.12MB Kongsberg multibeam vendor format
0530_20110618_023755_Langseth.all.mb58.gz 9.07MB Kongsberg multibeam vendor format
0531_20110618_030749_Langseth.all.mb58.gz 9.03MB Kongsberg multibeam vendor format
0532_20110618_033749_Langseth.all.mb58.gz 9.05MB Kongsberg multibeam vendor format
0533_20110618_040756_Langseth.all.mb58.gz 9.01MB Kongsberg multibeam vendor format
0534_20110618_043746_Langseth.all.mb58.gz 9.13MB Kongsberg multibeam vendor format
0535_20110618_050755_Langseth.all.mb58.gz 9.07MB Kongsberg multibeam vendor format
0536_20110618_053743_Langseth.all.mb58.gz 9.17MB Kongsberg multibeam vendor format
0537_20110618_060756_Langseth.all.mb58.gz 9.03MB Kongsberg multibeam vendor format
0538_20110618_063751_Langseth.all.mb58.gz 9.07MB Kongsberg multibeam vendor format
0539_20110618_070748_Langseth.all.mb58.gz 9.04MB Kongsberg multibeam vendor format
0540_20110618_073746_Langseth.all.mb58.gz 9.17MB Kongsberg multibeam vendor format
0541_20110618_080751_Langseth.all.mb58.gz 9.13MB Kongsberg multibeam vendor format
0542_20110618_083754_Langseth.all.mb58.gz 9.13MB Kongsberg multibeam vendor format
0543_20110618_090753_Langseth.all.mb58.gz 8.86MB Kongsberg multibeam vendor format
0544_20110618_093743_Langseth.all.mb58.gz 9.19MB Kongsberg multibeam vendor format
0545_20110618_100744_Langseth.all.mb58.gz 9.14MB Kongsberg multibeam vendor format
0546_20110618_103744_Langseth.all.mb58.gz 9.20MB Kongsberg multibeam vendor format
0547_20110618_110750_Langseth.all.mb58.gz 9.16MB Kongsberg multibeam vendor format
0548_20110618_113754_Langseth.all.mb58.gz 9.16MB Kongsberg multibeam vendor format
0549_20110618_120751_Langseth.all.mb58.gz 9.11MB Kongsberg multibeam vendor format
0550_20110618_123747_Langseth.all.mb58.gz 9.13MB Kongsberg multibeam vendor format
0551_20110618_130746_Langseth.all.mb58.gz 9.26MB Kongsberg multibeam vendor format
0552_20110618_133752_Langseth.all.mb58.gz 9.17MB Kongsberg multibeam vendor format
0553_20110618_140745_Langseth.all.mb58.gz 9.27MB Kongsberg multibeam vendor format
0554_20110618_143756_Langseth.all.mb58.gz 9.16MB Kongsberg multibeam vendor format
0555_20110618_150745_Langseth.all.mb58.gz 9.23MB Kongsberg multibeam vendor format
0556_20110618_153753_Langseth.all.mb58.gz 9.13MB Kongsberg multibeam vendor format
0557_20110618_160745_Langseth.all.mb58.gz 9.23MB Kongsberg multibeam vendor format
0558_20110618_163753_Langseth.all.mb58.gz 9.14MB Kongsberg multibeam vendor format
0559_20110618_170750_Langseth.all.mb58.gz 9.18MB Kongsberg multibeam vendor format
0560_20110618_173754_Langseth.all.mb58.gz 9.17MB Kongsberg multibeam vendor format
0561_20110618_180745_Langseth.all.mb58.gz 9.23MB Kongsberg multibeam vendor format
0562_20110618_183752_Langseth.all.mb58.gz 9.19MB Kongsberg multibeam vendor format
0563_20110618_190754_Langseth.all.mb58.gz 9.23MB Kongsberg multibeam vendor format
0564_20110618_193753_Langseth.all.mb58.gz 9.17MB Kongsberg multibeam vendor format
0565_20110618_200750_Langseth.all.mb58.gz 9.28MB Kongsberg multibeam vendor format
0566_20110618_203754_Langseth.all.mb58.gz 9.19MB Kongsberg multibeam vendor format
0567_20110618_210755_Langseth.all.mb58.gz 9.21MB Kongsberg multibeam vendor format
0568_20110618_213747_Langseth.all.mb58.gz 9.28MB Kongsberg multibeam vendor format
0569_20110618_220748_Langseth.all.mb58.gz 9.30MB Kongsberg multibeam vendor format
0570_20110618_223743_Langseth.all.mb58.gz 9.40MB Kongsberg multibeam vendor format
0571_20110618_230743_Langseth.all.mb58.gz 9.49MB Kongsberg multibeam vendor format
0572_20110618_233751_Langseth.all.mb58.gz 9.52MB Kongsberg multibeam vendor format
0573_20110619_000752_Langseth.all.mb58.gz 9.60MB Kongsberg multibeam vendor format
0574_20110619_003754_Langseth.all.mb58.gz 9.48MB Kongsberg multibeam vendor format
0575_20110619_010744_Langseth.all.mb58.gz 9.39MB Kongsberg multibeam vendor format
0576_20110619_013745_Langseth.all.mb58.gz 9.44MB Kongsberg multibeam vendor format
0577_20110619_020747_Langseth.all.mb58.gz 9.40MB Kongsberg multibeam vendor format
0578_20110619_023746_Langseth.all.mb58.gz 9.41MB Kongsberg multibeam vendor format
0579_20110619_030743_Langseth.all.mb58.gz 9.66MB Kongsberg multibeam vendor format
0580_20110619_033751_Langseth.all.mb58.gz 9.57MB Kongsberg multibeam vendor format
0581_20110619_040745_Langseth.all.mb58.gz 9.58MB Kongsberg multibeam vendor format
0582_20110619_043743_Langseth.all.mb58.gz 9.59MB Kongsberg multibeam vendor format
0583_20110619_050747_Langseth.all.mb58.gz 9.57MB Kongsberg multibeam vendor format
0584_20110619_053748_Langseth.all.mb58.gz 9.74MB Kongsberg multibeam vendor format
0585_20110619_060742_Langseth.all.mb58.gz 9.84MB Kongsberg multibeam vendor format
0586_20110619_063747_Langseth.all.mb58.gz 9.76MB Kongsberg multibeam vendor format
0587_20110619_070748_Langseth.all.mb58.gz 9.75MB Kongsberg multibeam vendor format
0588_20110619_073753_Langseth.all.mb58.gz 9.66MB Kongsberg multibeam vendor format
0589_20110619_080745_Langseth.all.mb58.gz 9.72MB Kongsberg multibeam vendor format
0590_20110619_083744_Langseth.all.mb58.gz 9.67MB Kongsberg multibeam vendor format
0591_20110619_090745_Langseth.all.mb58.gz 9.65MB Kongsberg multibeam vendor format
0592_20110619_093746_Langseth.all.mb58.gz 9.65MB Kongsberg multibeam vendor format
0593_20110619_100753_Langseth.all.mb58.gz 9.56MB Kongsberg multibeam vendor format
0594_20110619_103740_Langseth.all.mb58.gz 9.56MB Kongsberg multibeam vendor format
0595_20110619_110734_Langseth.all.mb58.gz 9.63MB Kongsberg multibeam vendor format
0596_20110619_113740_Langseth.all.mb58.gz 9.58MB Kongsberg multibeam vendor format
0597_20110619_120742_Langseth.all.mb58.gz 9.56MB Kongsberg multibeam vendor format
0598_20110619_123737_Langseth.all.mb58.gz 9.60MB Kongsberg multibeam vendor format
0599_20110619_130745_Langseth.all.mb58.gz 9.54MB Kongsberg multibeam vendor format
0600_20110619_133743_Langseth.all.mb58.gz 9.31MB Kongsberg multibeam vendor format
0601_20110619_140734_Langseth.all.mb58.gz 9.41MB Kongsberg multibeam vendor format
0602_20110619_143743_Langseth.all.mb58.gz 9.32MB Kongsberg multibeam vendor format
0603_20110619_150739_Langseth.all.mb58.gz 9.29MB Kongsberg multibeam vendor format
0604_20110619_153742_Langseth.all.mb58.gz 9.19MB Kongsberg multibeam vendor format
0605_20110619_160734_Langseth.all.mb58.gz 9.25MB Kongsberg multibeam vendor format
0606_20110619_163739_Langseth.all.mb58.gz 9.34MB Kongsberg multibeam vendor format
0607_20110619_170745_Langseth.all.mb58.gz 9.23MB Kongsberg multibeam vendor format
0608_20110619_173735_Langseth.all.mb58.gz 9.40MB Kongsberg multibeam vendor format
0609_20110619_180744_Langseth.all.mb58.gz 9.34MB Kongsberg multibeam vendor format
0610_20110619_183740_Langseth.all.mb58.gz 9.37MB Kongsberg multibeam vendor format
0611_20110619_190741_Langseth.all.mb58.gz 9.26MB Kongsberg multibeam vendor format
0612_20110619_193736_Langseth.all.mb58.gz 9.36MB Kongsberg multibeam vendor format
0613_20110619_200745_Langseth.all.mb58.gz 9.35MB Kongsberg multibeam vendor format
0614_20110619_203739_Langseth.all.mb58.gz 9.40MB Kongsberg multibeam vendor format
0615_20110619_210746_Langseth.all.mb58.gz 9.29MB Kongsberg multibeam vendor format
0616_20110619_213736_Langseth.all.mb58.gz 9.33MB Kongsberg multibeam vendor format
0617_20110619_220744_Langseth.all.mb58.gz 9.31MB Kongsberg multibeam vendor format
0618_20110619_223746_Langseth.all.mb58.gz 9.24MB Kongsberg multibeam vendor format
0619_20110619_230735_Langseth.all.mb58.gz 9.24MB Kongsberg multibeam vendor format
0620_20110619_233736_Langseth.all.mb58.gz 9.28MB Kongsberg multibeam vendor format
0621_20110620_000742_Langseth.all.mb58.gz 9.24MB Kongsberg multibeam vendor format
0622_20110620_003739_Langseth.all.mb58.gz 9.34MB Kongsberg multibeam vendor format
0623_20110620_010738_Langseth.all.mb58.gz 9.41MB Kongsberg multibeam vendor format
0624_20110620_013745_Langseth.all.mb58.gz 9.34MB Kongsberg multibeam vendor format
0625_20110620_020736_Langseth.all.mb58.gz 9.39MB Kongsberg multibeam vendor format
0626_20110620_023738_Langseth.all.mb58.gz 9.37MB Kongsberg multibeam vendor format
0627_20110620_030743_Langseth.all.mb58.gz 9.39MB Kongsberg multibeam vendor format
0628_20110620_033738_Langseth.all.mb58.gz 9.29MB Kongsberg multibeam vendor format
0629_20110620_040746_Langseth.all.mb58.gz 9.25MB Kongsberg multibeam vendor format
0630_20110620_043742_Langseth.all.mb58.gz 9.15MB Kongsberg multibeam vendor format
0631_20110620_050735_Langseth.all.mb58.gz 9.25MB Kongsberg multibeam vendor format
0632_20110620_053741_Langseth.all.mb58.gz 9.18MB Kongsberg multibeam vendor format
0633_20110620_060739_Langseth.all.mb58.gz 9.16MB Kongsberg multibeam vendor format
0634_20110620_063746_Langseth.all.mb58.gz 9.11MB Kongsberg multibeam vendor format
0635_20110620_070739_Langseth.all.mb58.gz 9.14MB Kongsberg multibeam vendor format
0636_20110620_073735_Langseth.all.mb58.gz 9.10MB Kongsberg multibeam vendor format
0637_20110620_080732_Langseth.all.mb58.gz 9.15MB Kongsberg multibeam vendor format
0638_20110620_083740_Langseth.all.mb58.gz 9.17MB Kongsberg multibeam vendor format
0639_20110620_090735_Langseth.all.mb58.gz 9.17MB Kongsberg multibeam vendor format
0640_20110620_093734_Langseth.all.mb58.gz 9.23MB Kongsberg multibeam vendor format
0641_20110620_100746_Langseth.all.mb58.gz 8.98MB Kongsberg multibeam vendor format
0642_20110620_103736_Langseth.all.mb58.gz 9.29MB Kongsberg multibeam vendor format
0643_20110620_110744_Langseth.all.mb58.gz 9.21MB Kongsberg multibeam vendor format
0644_20110620_113731_Langseth.all.mb58.gz 9.23MB Kongsberg multibeam vendor format
0645_20110620_120731_Langseth.all.mb58.gz 9.28MB Kongsberg multibeam vendor format
0646_20110620_123744_Langseth.all.mb58.gz 9.25MB Kongsberg multibeam vendor format
0647_20110620_130739_Langseth.all.mb58.gz 9.20MB Kongsberg multibeam vendor format
0648_20110620_133739_Langseth.all.mb58.gz 9.24MB Kongsberg multibeam vendor format
0649_20110620_140743_Langseth.all.mb58.gz 9.24MB Kongsberg multibeam vendor format
0650_20110620_143744_Langseth.all.mb58.gz 9.21MB Kongsberg multibeam vendor format
0651_20110620_150737_Langseth.all.mb58.gz 9.32MB Kongsberg multibeam vendor format
0652_20110620_153743_Langseth.all.mb58.gz 9.27MB Kongsberg multibeam vendor format
0653_20110620_160744_Langseth.all.mb58.gz 9.24MB Kongsberg multibeam vendor format
0654_20110620_163744_Langseth.all.mb58.gz 9.14MB Kongsberg multibeam vendor format
0655_20110620_170734_Langseth.all.mb58.gz 9.19MB Kongsberg multibeam vendor format
0656_20110620_173733_Langseth.all.mb58.gz 9.24MB Kongsberg multibeam vendor format
0657_20110620_180736_Langseth.all.mb58.gz 9.21MB Kongsberg multibeam vendor format
0658_20110620_183734_Langseth.all.mb58.gz 9.25MB Kongsberg multibeam vendor format
0659_20110620_190733_Langseth.all.mb58.gz 9.36MB Kongsberg multibeam vendor format
0660_20110620_193740_Langseth.all.mb58.gz 9.36MB Kongsberg multibeam vendor format
0661_20110620_200738_Langseth.all.mb58.gz 9.40MB Kongsberg multibeam vendor format
0662_20110620_203740_Langseth.all.mb58.gz 9.37MB Kongsberg multibeam vendor format
0663_20110620_210738_Langseth.all.mb58.gz 9.45MB Kongsberg multibeam vendor format
0664_20110620_213740_Langseth.all.mb58.gz 9.39MB Kongsberg multibeam vendor format
0665_20110620_220741_Langseth.all.mb58.gz 9.32MB Kongsberg multibeam vendor format
0666_20110620_223731_Langseth.all.mb58.gz 9.35MB Kongsberg multibeam vendor format
0667_20110620_230735_Langseth.all.mb58.gz 9.36MB Kongsberg multibeam vendor format
0668_20110620_233737_Langseth.all.mb58.gz 9.26MB Kongsberg multibeam vendor format
0669_20110621_000730_Langseth.all.mb58.gz 9.23MB Kongsberg multibeam vendor format
0670_20110621_003733_Langseth.all.mb58.gz 9.23MB Kongsberg multibeam vendor format
0671_20110621_010739_Langseth.all.mb58.gz 9.23MB Kongsberg multibeam vendor format
0672_20110621_013739_Langseth.all.mb58.gz 9.18MB Kongsberg multibeam vendor format
0673_20110621_020744_Langseth.all.mb58.gz 9.12MB Kongsberg multibeam vendor format
0674_20110621_023741_Langseth.all.mb58.gz 9.14MB Kongsberg multibeam vendor format
0675_20110621_030741_Langseth.all.mb58.gz 9.14MB Kongsberg multibeam vendor format
0676_20110621_033741_Langseth.all.mb58.gz 9.09MB Kongsberg multibeam vendor format
0677_20110621_040732_Langseth.all.mb58.gz 9.21MB Kongsberg multibeam vendor format
0678_20110621_043742_Langseth.all.mb58.gz 9.09MB Kongsberg multibeam vendor format
0679_20110621_050732_Langseth.all.mb58.gz 9.19MB Kongsberg multibeam vendor format
0680_20110621_053734_Langseth.all.mb58.gz 9.23MB Kongsberg multibeam vendor format
0681_20110621_060741_Langseth.all.mb58.gz 9.07MB Kongsberg multibeam vendor format
0682_20110621_063740_Langseth.all.mb58.gz 9.02MB Kongsberg multibeam vendor format
0683_20110621_070735_Langseth.all.mb58.gz 9.11MB Kongsberg multibeam vendor format
0684_20110621_073735_Langseth.all.mb58.gz 9.02MB Kongsberg multibeam vendor format
0685_20110621_080736_Langseth.all.mb58.gz 8.95MB Kongsberg multibeam vendor format
0686_20110621_083733_Langseth.all.mb58.gz 9.00MB Kongsberg multibeam vendor format
0687_20110621_090742_Langseth.all.mb58.gz 8.85MB Kongsberg multibeam vendor format
0688_20110621_093737_Langseth.all.mb58.gz 8.89MB Kongsberg multibeam vendor format
0689_20110621_100739_Langseth.all.mb58.gz 8.97MB Kongsberg multibeam vendor format
0690_20110621_103744_Langseth.all.mb58.gz 8.89MB Kongsberg multibeam vendor format
0691_20110621_110731_Langseth.all.mb58.gz 8.89MB Kongsberg multibeam vendor format
0692_20110621_113733_Langseth.all.mb58.gz 8.88MB Kongsberg multibeam vendor format
0693_20110621_120736_Langseth.all.mb58.gz 8.83MB Kongsberg multibeam vendor format
0694_20110621_123737_Langseth.all.mb58.gz 8.79MB Kongsberg multibeam vendor format
0695_20110621_130730_Langseth.all.mb58.gz 8.94MB Kongsberg multibeam vendor format
0696_20110621_133741_Langseth.all.mb58.gz 8.90MB Kongsberg multibeam vendor format
0697_20110621_140739_Langseth.all.mb58.gz 8.92MB Kongsberg multibeam vendor format
0698_20110621_143744_Langseth.all.mb58.gz 8.81MB Kongsberg multibeam vendor format
0699_20110621_150733_Langseth.all.mb58.gz 8.88MB Kongsberg multibeam vendor format
0700_20110621_153730_Langseth.all.mb58.gz 9.01MB Kongsberg multibeam vendor format
0701_20110621_160742_Langseth.all.mb58.gz 8.95MB Kongsberg multibeam vendor format
0702_20110621_163739_Langseth.all.mb58.gz 8.97MB Kongsberg multibeam vendor format
0703_20110621_170736_Langseth.all.mb58.gz 9.00MB Kongsberg multibeam vendor format
0704_20110621_173744_Langseth.all.mb58.gz 8.88MB Kongsberg multibeam vendor format
0705_20110621_180730_Langseth.all.mb58.gz 9.13MB Kongsberg multibeam vendor format
0706_20110621_183743_Langseth.all.mb58.gz 8.94MB Kongsberg multibeam vendor format
0707_20110621_190732_Langseth.all.mb58.gz 9.07MB Kongsberg multibeam vendor format
0708_20110621_193736_Langseth.all.mb58.gz 9.01MB Kongsberg multibeam vendor format
0709_20110621_200741_Langseth.all.mb58.gz 9.03MB Kongsberg multibeam vendor format
0710_20110621_203736_Langseth.all.mb58.gz 8.96MB Kongsberg multibeam vendor format
0711_20110621_210730_Langseth.all.mb58.gz 9.12MB Kongsberg multibeam vendor format
0712_20110621_213743_Langseth.all.mb58.gz 8.98MB Kongsberg multibeam vendor format
0713_20110621_220734_Langseth.all.mb58.gz 9.11MB Kongsberg multibeam vendor format
0714_20110621_223744_Langseth.all.mb58.gz 8.96MB Kongsberg multibeam vendor format
0715_20110621_230737_Langseth.all.mb58.gz 8.93MB Kongsberg multibeam vendor format
0716_20110621_233731_Langseth.all.mb58.gz 8.93MB Kongsberg multibeam vendor format
0717_20110622_000731_Langseth.all.mb58.gz 8.95MB Kongsberg multibeam vendor format
0718_20110622_003730_Langseth.all.mb58.gz 8.93MB Kongsberg multibeam vendor format
0719_20110622_010734_Langseth.all.mb58.gz 8.87MB Kongsberg multibeam vendor format
0720_20110622_013734_Langseth.all.mb58.gz 8.89MB Kongsberg multibeam vendor format
0721_20110622_020737_Langseth.all.mb58.gz 8.88MB Kongsberg multibeam vendor format
0722_20110622_023735_Langseth.all.mb58.gz 8.79MB Kongsberg multibeam vendor format
0723_20110622_030733_Langseth.all.mb58.gz 8.89MB Kongsberg multibeam vendor format
0724_20110622_033738_Langseth.all.mb58.gz 8.88MB Kongsberg multibeam vendor format
0725_20110622_040729_Langseth.all.mb58.gz 9.02MB Kongsberg multibeam vendor format
0726_20110622_043736_Langseth.all.mb58.gz 8.90MB Kongsberg multibeam vendor format
0727_20110622_050737_Langseth.all.mb58.gz 8.77MB Kongsberg multibeam vendor format
0728_20110622_053730_Langseth.all.mb58.gz 8.85MB Kongsberg multibeam vendor format
0729_20110622_060734_Langseth.all.mb58.gz 8.85MB Kongsberg multibeam vendor format
0730_20110622_063733_Langseth.all.mb58.gz 8.82MB Kongsberg multibeam vendor format
0731_20110622_070739_Langseth.all.mb58.gz 8.66MB Kongsberg multibeam vendor format
0732_20110622_073730_Langseth.all.mb58.gz 8.90MB Kongsberg multibeam vendor format
0733_20110622_080731_Langseth.all.mb58.gz 8.81MB Kongsberg multibeam vendor format
0734_20110622_083736_Langseth.all.mb58.gz 8.89MB Kongsberg multibeam vendor format
0735_20110622_090734_Langseth.all.mb58.gz 8.93MB Kongsberg multibeam vendor format
0736_20110622_093732_Langseth.all.mb58.gz 8.89MB Kongsberg multibeam vendor format
0737_20110622_100732_Langseth.all.mb58.gz 8.77MB Kongsberg multibeam vendor format
0738_20110622_103727_Langseth.all.mb58.gz 8.86MB Kongsberg multibeam vendor format
0739_20110622_110738_Langseth.all.mb58.gz 8.79MB Kongsberg multibeam vendor format
0740_20110622_113739_Langseth.all.mb58.gz 8.68MB Kongsberg multibeam vendor format
0741_20110622_120729_Langseth.all.mb58.gz 8.73MB Kongsberg multibeam vendor format
0742_20110622_123734_Langseth.all.mb58.gz 8.67MB Kongsberg multibeam vendor format
0743_20110622_130734_Langseth.all.mb58.gz 8.71MB Kongsberg multibeam vendor format
0744_20110622_133736_Langseth.all.mb58.gz 8.70MB Kongsberg multibeam vendor format
0745_20110622_140738_Langseth.all.mb58.gz 8.66MB Kongsberg multibeam vendor format
0746_20110622_143727_Langseth.all.mb58.gz 8.75MB Kongsberg multibeam vendor format
0747_20110622_150738_Langseth.all.mb58.gz 8.67MB Kongsberg multibeam vendor format
0748_20110622_153733_Langseth.all.mb58.gz 8.67MB Kongsberg multibeam vendor format
0749_20110622_160729_Langseth.all.mb58.gz 8.66MB Kongsberg multibeam vendor format
0750_20110622_163727_Langseth.all.mb58.gz 8.67MB Kongsberg multibeam vendor format
0751_20110622_170738_Langseth.all.mb58.gz 8.63MB Kongsberg multibeam vendor format
0752_20110622_173727_Langseth.all.mb58.gz 8.67MB Kongsberg multibeam vendor format
0753_20110622_180730_Langseth.all.mb58.gz 8.69MB Kongsberg multibeam vendor format
0754_20110622_183725_Langseth.all.mb58.gz 8.73MB Kongsberg multibeam vendor format
0755_20110622_190725_Langseth.all.mb58.gz 8.73MB Kongsberg multibeam vendor format
0756_20110622_193729_Langseth.all.mb58.gz 8.75MB Kongsberg multibeam vendor format
0757_20110622_200738_Langseth.all.mb58.gz 8.67MB Kongsberg multibeam vendor format
0758_20110622_203737_Langseth.all.mb58.gz 8.68MB Kongsberg multibeam vendor format
0759_20110622_210737_Langseth.all.mb58.gz 8.69MB Kongsberg multibeam vendor format
0760_20110622_213732_Langseth.all.mb58.gz 8.69MB Kongsberg multibeam vendor format
0761_20110622_220733_Langseth.all.mb58.gz 8.73MB Kongsberg multibeam vendor format
0762_20110622_223735_Langseth.all.mb58.gz 8.71MB Kongsberg multibeam vendor format
0763_20110622_230736_Langseth.all.mb58.gz 8.70MB Kongsberg multibeam vendor format
0764_20110622_233725_Langseth.all.mb58.gz 8.76MB Kongsberg multibeam vendor format
0765_20110623_000732_Langseth.all.mb58.gz 8.67MB Kongsberg multibeam vendor format
0766_20110623_003730_Langseth.all.mb58.gz 8.53MB Kongsberg multibeam vendor format
0767_20110623_010739_Langseth.all.mb58.gz 8.62MB Kongsberg multibeam vendor format
0768_20110623_013728_Langseth.all.mb58.gz 8.53MB Kongsberg multibeam vendor format
0769_20110623_020733_Langseth.all.mb58.gz 8.65MB Kongsberg multibeam vendor format
0770_20110623_023727_Langseth.all.mb58.gz 8.60MB Kongsberg multibeam vendor format
0771_20110623_030730_Langseth.all.mb58.gz 8.62MB Kongsberg multibeam vendor format
0772_20110623_033729_Langseth.all.mb58.gz 8.52MB Kongsberg multibeam vendor format
0773_20110623_040731_Langseth.all.mb58.gz 8.53MB Kongsberg multibeam vendor format
0774_20110623_043729_Langseth.all.mb58.gz 8.51MB Kongsberg multibeam vendor format
0775_20110623_050731_Langseth.all.mb58.gz 8.52MB Kongsberg multibeam vendor format
0776_20110623_053732_Langseth.all.mb58.gz 8.43MB Kongsberg multibeam vendor format
0777_20110623_060732_Langseth.all.mb58.gz 8.29MB Kongsberg multibeam vendor format
0778_20110623_063738_Langseth.all.mb58.gz 8.19MB Kongsberg multibeam vendor format
0779_20110623_070733_Langseth.all.mb58.gz 8.31MB Kongsberg multibeam vendor format
0780_20110623_073732_Langseth.all.mb58.gz 8.30MB Kongsberg multibeam vendor format
0781_20110623_080728_Langseth.all.mb58.gz 8.39MB Kongsberg multibeam vendor format
0782_20110623_083729_Langseth.all.mb58.gz 8.42MB Kongsberg multibeam vendor format
0783_20110623_090730_Langseth.all.mb58.gz 8.47MB Kongsberg multibeam vendor format
0784_20110623_093733_Langseth.all.mb58.gz 8.49MB Kongsberg multibeam vendor format
0785_20110623_100726_Langseth.all.mb58.gz 8.56MB Kongsberg multibeam vendor format
0786_20110623_103733_Langseth.all.mb58.gz 8.42MB Kongsberg multibeam vendor format
0787_20110623_110722_Langseth.all.mb58.gz 8.48MB Kongsberg multibeam vendor format
0788_20110623_113729_Langseth.all.mb58.gz 8.53MB Kongsberg multibeam vendor format
0789_20110623_120724_Langseth.all.mb58.gz 8.46MB Kongsberg multibeam vendor format
0790_20110623_123735_Langseth.all.mb58.gz 8.38MB Kongsberg multibeam vendor format
0791_20110623_130724_Langseth.all.mb58.gz 8.49MB Kongsberg multibeam vendor format
0792_20110623_133726_Langseth.all.mb58.gz 8.49MB Kongsberg multibeam vendor format
0793_20110623_140731_Langseth.all.mb58.gz 8.47MB Kongsberg multibeam vendor format
0794_20110623_143729_Langseth.all.mb58.gz 8.44MB Kongsberg multibeam vendor format
0795_20110623_150734_Langseth.all.mb58.gz 8.42MB Kongsberg multibeam vendor format
0796_20110623_153735_Langseth.all.mb58.gz 8.41MB Kongsberg multibeam vendor format
0797_20110623_160734_Langseth.all.mb58.gz 8.25MB Kongsberg multibeam vendor format
0798_20110623_163728_Langseth.all.mb58.gz 8.52MB Kongsberg multibeam vendor format
0799_20110623_170731_Langseth.all.mb58.gz 8.53MB Kongsberg multibeam vendor format
0800_20110623_173731_Langseth.all.mb58.gz 8.55MB Kongsberg multibeam vendor format
0801_20110623_180728_Langseth.all.mb58.gz 8.59MB Kongsberg multibeam vendor format
0802_20110623_183735_Langseth.all.mb58.gz 8.49MB Kongsberg multibeam vendor format
0803_20110623_190729_Langseth.all.mb58.gz 8.54MB Kongsberg multibeam vendor format
0804_20110623_193728_Langseth.all.mb58.gz 8.51MB Kongsberg multibeam vendor format
0805_20110623_200727_Langseth.all.mb58.gz 8.52MB Kongsberg multibeam vendor format
0806_20110623_203724_Langseth.all.mb58.gz 8.58MB Kongsberg multibeam vendor format
0807_20110623_210732_Langseth.all.mb58.gz 8.52MB Kongsberg multibeam vendor format
0808_20110623_213722_Langseth.all.mb58.gz 8.43MB Kongsberg multibeam vendor format
0809_20110623_220730_Langseth.all.mb58.gz 8.50MB Kongsberg multibeam vendor format
0810_20110623_223732_Langseth.all.mb58.gz 8.46MB Kongsberg multibeam vendor format
0811_20110623_230733_Langseth.all.mb58.gz 8.39MB Kongsberg multibeam vendor format
0812_20110623_233731_Langseth.all.mb58.gz 8.30MB Kongsberg multibeam vendor format
0813_20110624_000730_Langseth.all.mb58.gz 8.17MB Kongsberg multibeam vendor format
0814_20110624_003721_Langseth.all.mb58.gz 8.28MB Kongsberg multibeam vendor format
0815_20110624_010731_Langseth.all.mb58.gz 8.19MB Kongsberg multibeam vendor format
0816_20110624_013725_Langseth.all.mb58.gz 8.18MB Kongsberg multibeam vendor format
0817_20110624_020731_Langseth.all.mb58.gz 8.13MB Kongsberg multibeam vendor format
0818_20110624_023727_Langseth.all.mb58.gz 8.08MB Kongsberg multibeam vendor format
0819_20110624_030729_Langseth.all.mb58.gz 7.99MB Kongsberg multibeam vendor format
0820_20110624_033726_Langseth.all.mb58.gz 8.14MB Kongsberg multibeam vendor format
0821_20110624_040735_Langseth.all.mb58.gz 8.10MB Kongsberg multibeam vendor format
0822_20110624_043733_Langseth.all.mb58.gz 8.13MB Kongsberg multibeam vendor format
0823_20110624_050725_Langseth.all.mb58.gz 8.14MB Kongsberg multibeam vendor format
0824_20110624_053732_Langseth.all.mb58.gz 8.03MB Kongsberg multibeam vendor format
0825_20110624_060723_Langseth.all.mb58.gz 8.15MB Kongsberg multibeam vendor format
0826_20110624_063724_Langseth.all.mb58.gz 8.16MB Kongsberg multibeam vendor format
0827_20110624_070733_Langseth.all.mb58.gz 8.06MB Kongsberg multibeam vendor format
0828_20110624_073722_Langseth.all.mb58.gz 8.16MB Kongsberg multibeam vendor format
0829_20110624_080733_Langseth.all.mb58.gz 8.02MB Kongsberg multibeam vendor format
0830_20110624_083737_Langseth.all.mb58.gz 7.82MB Kongsberg multibeam vendor format
0831_20110624_090725_Langseth.all.mb58.gz 8.01MB Kongsberg multibeam vendor format
0832_20110624_093729_Langseth.all.mb58.gz 7.96MB Kongsberg multibeam vendor format
0833_20110624_100724_Langseth.all.mb58.gz 8.00MB Kongsberg multibeam vendor format
0834_20110624_103722_Langseth.all.mb58.gz 8.04MB Kongsberg multibeam vendor format
0835_20110624_110734_Langseth.all.mb58.gz 7.95MB Kongsberg multibeam vendor format
0836_20110624_113732_Langseth.all.mb58.gz 7.98MB Kongsberg multibeam vendor format
0837_20110624_120730_Langseth.all.mb58.gz 8.00MB Kongsberg multibeam vendor format
0838_20110624_123734_Langseth.all.mb58.gz 7.95MB Kongsberg multibeam vendor format
0839_20110624_130728_Langseth.all.mb58.gz 8.12MB Kongsberg multibeam vendor format
0840_20110624_133748_Langseth.all.mb58.gz 8.03MB Kongsberg multibeam vendor format
0841_20110624_140754_Langseth.all.mb58.gz 8.01MB Kongsberg multibeam vendor format
0842_20110624_143745_Langseth.all.mb58.gz 8.11MB Kongsberg multibeam vendor format
0843_20110624_150747_Langseth.all.mb58.gz 8.17MB Kongsberg multibeam vendor format
0844_20110624_153750_Langseth.all.mb58.gz 8.17MB Kongsberg multibeam vendor format
0845_20110624_160801_Langseth.all.mb58.gz 8.10MB Kongsberg multibeam vendor format
0846_20110624_163757_Langseth.all.mb58.gz 8.12MB Kongsberg multibeam vendor format
0847_20110624_170752_Langseth.all.mb58.gz 8.16MB Kongsberg multibeam vendor format
0848_20110624_173756_Langseth.all.mb58.gz 8.23MB Kongsberg multibeam vendor format
0849_20110624_180758_Langseth.all.mb58.gz 8.24MB Kongsberg multibeam vendor format
0850_20110624_183754_Langseth.all.mb58.gz 8.29MB Kongsberg multibeam vendor format
0851_20110624_190806_Langseth.all.mb58.gz 8.36MB Kongsberg multibeam vendor format
0852_20110624_193803_Langseth.all.mb58.gz 8.36MB Kongsberg multibeam vendor format
0853_20110624_200752_Langseth.all.mb58.gz 8.50MB Kongsberg multibeam vendor format
0854_20110624_203801_Langseth.all.mb58.gz 8.55MB Kongsberg multibeam vendor format
0855_20110624_210756_Langseth.all.mb58.gz 8.53MB Kongsberg multibeam vendor format
0856_20110624_213802_Langseth.all.mb58.gz 8.28MB Kongsberg multibeam vendor format
0857_20110624_220805_Langseth.all.mb58.gz 8.08MB Kongsberg multibeam vendor format
0858_20110624_223800_Langseth.all.mb58.gz 8.45MB Kongsberg multibeam vendor format
0859_20110624_230800_Langseth.all.mb58.gz 8.54MB Kongsberg multibeam vendor format
0860_20110624_233809_Langseth.all.mb58.gz 8.50MB Kongsberg multibeam vendor format
0861_20110625_000800_Langseth.all.mb58.gz 8.56MB Kongsberg multibeam vendor format
0862_20110625_003803_Langseth.all.mb58.gz 8.56MB Kongsberg multibeam vendor format
0863_20110625_010801_Langseth.all.mb58.gz 8.61MB Kongsberg multibeam vendor format
0864_20110625_013811_Langseth.all.mb58.gz 8.51MB Kongsberg multibeam vendor format
0865_20110625_020802_Langseth.all.mb58.gz 8.45MB Kongsberg multibeam vendor format
0866_20110625_023804_Langseth.all.mb58.gz 8.45MB Kongsberg multibeam vendor format
0867_20110625_030804_Langseth.all.mb58.gz 8.38MB Kongsberg multibeam vendor format
0868_20110625_033810_Langseth.all.mb58.gz 8.31MB Kongsberg multibeam vendor format
0869_20110625_040812_Langseth.all.mb58.gz 8.20MB Kongsberg multibeam vendor format
0870_20110625_043802_Langseth.all.mb58.gz 8.26MB Kongsberg multibeam vendor format
0871_20110625_050810_Langseth.all.mb58.gz 8.23MB Kongsberg multibeam vendor format
0872_20110625_053812_Langseth.all.mb58.gz 8.14MB Kongsberg multibeam vendor format
0873_20110625_060801_Langseth.all.mb58.gz 8.16MB Kongsberg multibeam vendor format
0874_20110625_063805_Langseth.all.mb58.gz 8.07MB Kongsberg multibeam vendor format
0875_20110625_070805_Langseth.all.mb58.gz 8.05MB Kongsberg multibeam vendor format
0876_20110625_073809_Langseth.all.mb58.gz 7.98MB Kongsberg multibeam vendor format
0877_20110625_080818_Langseth.all.mb58.gz 7.83MB Kongsberg multibeam vendor format
0878_20110625_083805_Langseth.all.mb58.gz 7.88MB Kongsberg multibeam vendor format
0879_20110625_090811_Langseth.all.mb58.gz 7.87MB Kongsberg multibeam vendor format
0880_20110625_093810_Langseth.all.mb58.gz 7.89MB Kongsberg multibeam vendor format
0881_20110625_100815_Langseth.all.mb58.gz 7.77MB Kongsberg multibeam vendor format
0882_20110625_103814_Langseth.all.mb58.gz 7.71MB Kongsberg multibeam vendor format
0883_20110625_110801_Langseth.all.mb58.gz 7.72MB Kongsberg multibeam vendor format
0884_20110625_113810_Langseth.all.mb58.gz 7.77MB Kongsberg multibeam vendor format
0885_20110625_120808_Langseth.all.mb58.gz 7.75MB Kongsberg multibeam vendor format
0886_20110625_123806_Langseth.all.mb58.gz 7.71MB Kongsberg multibeam vendor format
0887_20110625_130808_Langseth.all.mb58.gz 8.04MB Kongsberg multibeam vendor format
0888_20110625_133813_Langseth.all.mb58.gz 8.06MB Kongsberg multibeam vendor format
0889_20110625_140814_Langseth.all.mb58.gz 8.06MB Kongsberg multibeam vendor format
0890_20110625_143801_Langseth.all.mb58.gz 8.07MB Kongsberg multibeam vendor format
0891_20110625_150808_Langseth.all.mb58.gz 8.01MB Kongsberg multibeam vendor format
0892_20110625_153801_Langseth.all.mb58.gz 7.91MB Kongsberg multibeam vendor format
0893_20110625_160807_Langseth.all.mb58.gz 7.59MB Kongsberg multibeam vendor format
0894_20110625_163814_Langseth.all.mb58.gz 7.79MB Kongsberg multibeam vendor format
0895_20110625_170806_Langseth.all.mb58.gz 8.13MB Kongsberg multibeam vendor format
0896_20110625_173813_Langseth.all.mb58.gz 8.25MB Kongsberg multibeam vendor format
0897_20110625_180808_Langseth.all.mb58.gz 8.63MB Kongsberg multibeam vendor format
0898_20110625_183801_Langseth.all.mb58.gz 8.97MB Kongsberg multibeam vendor format
0899_20110625_190812_Langseth.all.mb58.gz 9.71MB Kongsberg multibeam vendor format
0900_20110625_193807_Langseth.all.mb58.gz 10.17MB Kongsberg multibeam vendor format
0901_20110625_200810_Langseth.all.mb58.gz 13.34MB Kongsberg multibeam vendor format
0902_20110625_203810_Langseth.all.mb58.gz 20.78MB Kongsberg multibeam vendor format
0903_20110625_210803_Langseth.all.mb58.gz 34.05MB Kongsberg multibeam vendor format
0904_20110625_213801_Langseth.all.mb58.gz 57.67MB Kongsberg multibeam vendor format
0905_20110625_220800_Langseth.all.mb58.gz 88.30MB Kongsberg multibeam vendor format
0906_20110625_223800_Langseth.all.mb58.gz 61.82MB Kongsberg multibeam vendor format
0907_20110625_230801_Langseth.all.mb58.gz 46.08MB Kongsberg multibeam vendor format
0908_20110625_233801_Langseth.all.mb58.gz 44.82MB Kongsberg multibeam vendor format
0909_20110626_000802_Langseth.all.mb58.gz 44.15MB Kongsberg multibeam vendor format
0910_20110626_003801_Langseth.all.mb58.gz 44.19MB Kongsberg multibeam vendor format
0911_20110626_010800_Langseth.all.mb58.gz 44.28MB Kongsberg multibeam vendor format
0912_20110626_013800_Langseth.all.mb58.gz 43.97MB Kongsberg multibeam vendor format
0913_20110626_020759_Langseth.all.mb58.gz 45.12MB Kongsberg multibeam vendor format
0914_20110626_023759_Langseth.all.mb58.gz 52.14MB Kongsberg multibeam vendor format
0915_20110626_030800_Langseth.all.mb58.gz 89.37MB Kongsberg multibeam vendor format
0916_20110626_033759_Langseth.all.mb58.gz 102.84MB Kongsberg multibeam vendor format
0917_20110626_040759_Langseth.all.mb58.gz 102.48MB Kongsberg multibeam vendor format
0918_20110626_043800_Langseth.all.mb58.gz 103.51MB Kongsberg multibeam vendor format
0919_20110626_050759_Langseth.all.mb58.gz 102.38MB Kongsberg multibeam vendor format
0920_20110626_053759_Langseth.all.mb58.gz 89.61MB Kongsberg multibeam vendor format
0921_20110626_060759_Langseth.all.mb58.gz 91.09MB Kongsberg multibeam vendor format
0922_20110626_063759_Langseth.all.mb58.gz 81.94MB Kongsberg multibeam vendor format
0923_20110626_070759_Langseth.all.mb58.gz 71.58MB Kongsberg multibeam vendor format
0924_20110626_073759_Langseth.all.mb58.gz 90.71MB Kongsberg multibeam vendor format
0925_20110626_080759_Langseth.all.mb58.gz 88.81MB Kongsberg multibeam vendor format
0926_20110626_083759_Langseth.all.mb58.gz 103.62MB Kongsberg multibeam vendor format
0927_20110626_090759_Langseth.all.mb58.gz 104.16MB Kongsberg multibeam vendor format
0928_20110626_093759_Langseth.all.mb58.gz 103.69MB Kongsberg multibeam vendor format
0929_20110626_100759_Langseth.all.mb58.gz 103.95MB Kongsberg multibeam vendor format
0930_20110626_103759_Langseth.all.mb58.gz 100.72MB Kongsberg multibeam vendor format
0931_20110626_110759_Langseth.all.mb58.gz 101.27MB Kongsberg multibeam vendor format
0932_20110626_113759_Langseth.all.mb58.gz 82.62MB Kongsberg multibeam vendor format
0933_20110626_120759_Langseth.all.mb58.gz 75.05MB Kongsberg multibeam vendor format
0934_20110626_123759_Langseth.all.mb58.gz 19.78MB Kongsberg multibeam vendor format
9999.all.mb58.gz 44.4KB Kongsberg multibeam vendor format

Products: 19

Files File Size Description
MGL1109_EM122centerdepth.txt.gz 268.77MB ASCII text product
MGL1109_bathy.tfw.gz 87 Bytes TIFF survey world file
MGL1109_bathy.tif.gz 296.32MB GeoTIFF survey image
MGL1109_bathy.xyz.gz 199.26MB xyz grid file provided by the originator
MGL1109_bathy_geo.sd.gz 633.80MB Fledermaus surface
MGL1109_bathy_utm.sd.gz 592.35MB Fledermaus surface
MGL1109_mos.tfw.gz 87 Bytes TIFF survey world file
MGL1109_mos.tif.gz 8.73MB GeoTIFF survey image
MGL1109_mos.xyb.gz 181.01MB ASCII backscatter data
MGL1109_mos_geo.sd.gz 211.28MB Fledermaus surface
MGL1109_mos_utm.sd.gz 197.46MB Fledermaus surface
MGL1109gak.pdf.gz 0.80MB PDF product
mg1109_bathy.bag.gz 790.01MB Bathymetric Attributed Grid
mgl1109_bathy.asc.gz 617.25MB ESRI Arc ASCII
mgl1109_mos.asc.gz 597.53MB ESRI Arc ASCII
mgl1109_mos_geo.xyb.gz 206.01MB ASCII backscatter data
mgl1109bat_geo.xyz.gz 236.96MB xyz grid file provided by the originator
mgl1109batgeo.asc.gz 959.03MB ESRI Arc ASCII
mgl1109mosgeo.asc.gz 959.03MB ESRI Arc ASCII

Metadata Files: 15

Files File Size Description
MGL1109_Multibeam.xml NGDC created ISO metadata
MGL1109_ASCIIXYB_mos_metadata.xml 15.8KB XML metadata file
MGL1109_ASCIIXYZ_bathy_metadata.xml 16.4KB XML metadata file
MGL1109_ESRI_backscatter_metadata.xml 20.2KB XML metadata file
MGL1109_ESRI_backscatter_metadata_GEO.xml 56.5KB XML metadata file
MGL1109_ESRI_bathy_metadata.xml 20.1KB XML metadata file
MGL1109_ESRI_bathy_metadata_GEO.xml 50.6KB XML metadata file
MGL1109_IVS3D_backscatter_metadata.xml 15.6KB XML metadata file
MGL1109_IVS3D_bathy_metadata.xml 16.1KB XML metadata file
MGL1109_Multibeam-0.xml 14.0KB XML metadata file
MGL1109_backscatter_image_metadata.xml 20.0KB XML metadata file
MGL1109_bathy_image_metadata.xml 19.7KB XML metadata file
MGL1109_centerdepth_metadata.xml 19.3KB XML metadata file
MGL1109_unols_cruiselevelmeta_updated.rtf 94.0KB Metadata files in Rich Text Format
mlevoir_mgl1109_extra_mb_info.doc 24.5KB Data report or metadata in Word document format